Time,TemperatureF,DewpointF,PressureIn,WindDirection,WindDirectionDegrees,WindSpeedMPH,WindSpeedGustMPH,Humidity,HourlyPrecipIn,Conditions,Clouds,dailyrainin,SoftwareType,DateUTC
2013-12-21 00:00:00,60.2,56.3,29.92,SSE,165,8.0,10.0,87,0.03,,SKC,0.05,VWS V14.01,2013-12-21 06:00:00,
2013-12-21 00:02:00,60.3,56.4,29.92,SE,136,8.0,11.0,87,0.02,,SKC,0.00,VWS V14.01,2013-12-21 06:02:00,
2013-12-21 00:05:00,60.3,56.4,29.92,SE,129,8.0,13.0,87,0.02,,SKC,0.00,VWS V14.01,2013-12-21 06:05:00,
2013-12-21 00:07:00,60.4,56.5,29.92,SSW,198,7.0,8.0,87,0.02,,SKC,0.00,VWS V14.01,2013-12-21 06:07:00,
2013-12-21 00:10:00,60.4,56.2,29.92,SE,146,3.0,8.0,86,0.02,,SKC,0.00,VWS V14.01,2013-12-21 06:10:00,
2013-12-21 00:12:00,60.5,56.3,29.92,SSE,157,8.0,13.0,86,0.02,,SKC,0.00,VWS V14.01,2013-12-21 06:12:00,
2013-12-21 00:15:00,60.5,56.3,29.92,SSE,151,8.0,13.0,86,0.02,,SKC,0.00,VWS V14.01,2013-12-21 06:15:00,
2013-12-21 00:17:00,60.7,56.5,29.92,SW,222,11.0,17.0,86,0.01,,SKC,0.00,VWS V14.01,2013-12-21 06:17:00,
2013-12-21 00:20:00,60.7,56.5,29.92,ESE,120,5.0,17.0,86,0.01,,SKC,0.00,VWS V14.01,2013-12-21 06:20:00,
2013-12-21 00:22:00,60.8,56.6,29.91,SSE,152,5.0,19.0,86,0.01,,SKC,0.00,VWS V14.01,2013-12-21 06:22:00,
2013-12-21 00:25:00,60.9,56.7,29.91,South,170,9.0,19.0,86,0.01,,SKC,0.00,VWS V14.01,2013-12-21 06:25:00,
2013-12-21 00:27:00,60.8,56.3,29.91,SSW,194,6.0,10.0,85,0.01,,SKC,0.00,VWS V14.01,2013-12-21 06:27:00,
2013-12-21 00:30:00,60.8,56.6,29.91,SE,133,6.0,18.0,86,0.01,,SKC,0.00,VWS V14.01,2013-12-21 06:30:00,
2013-12-21 00:32:00,60.8,56.6,29.91,SE,142,9.0,14.0,86,0.00,,SKC,0.00,VWS V14.01,2013-12-21 06:32:00,
2013-12-21 00:33:00,60.9,56.7,29.91,SSW,200,5.0,14.0,86,0.00,,SKC,0.00,VWS V14.01,2013-12-21 06:33:00,
2013-12-21 00:35:00,60.9,56.7,29.91,SSE,153,3.0,14.0,86,0.00,,SKC,0.00,VWS V14.01,2013-12-21 06:35:00,
2013-12-21 00:38:00,60.9,56.4,29.91,South,180,6.0,15.0,85,0.00,,SKC,0.00,VWS V14.01,2013-12-21 06:38:00,
2013-12-21 00:40:00,60.9,56.4,29.91,SSW,197,3.0,15.0,85,0.00,,SKC,0.00,VWS V14.01,2013-12-21 06:40:00,
2013-12-21 00:43:00,60.9,56.4,29.91,South,176,5.0,15.0,85,0.00,,SKC,0.00,VWS V14.01,2013-12-21 06:43:00,
2013-12-21 00:45:00,60.9,56.4,29.91,South,184,2.0,15.0,85,0.00,,SKC,0.00,VWS V14.01,2013-12-21 06:45:00,
2013-12-21 00:48:00,61.0,56.5,29.92,South,187,12.0,15.0,85,0.00,,SKC,0.00,VWS V14.01,2013-12-21 06:48:00,
2013-12-21 00:50:00,61.0,56.5,29.92,SSE,155,11.0,15.0,85,0.00,,SKC,0.00,VWS V14.01,2013-12-21 06:50:00,
2013-12-21 00:53:00,61.1,56.6,29.91,South,176,4.0,11.0,85,0.00,,SKC,0.00,VWS V14.01,2013-12-21 06:53:00,
2013-12-21 00:55:00,61.1,56.6,29.91,South,179,6.0,11.0,85,0.00,,SKC,0.00,VWS V14.01,2013-12-21 06:55:00,
2013-12-21 00:58:00,61.1,56.6,29.91,South,169,5.0,13.0,85,0.00,,SKC,0.00,VWS V14.01,2013-12-21 06:58:00,
2013-12-21 01:00:00,61.1,56.6,29.91,SSE,156,4.0,13.0,85,0.00,,SKC,0.00,VWS V14.01,2013-12-21 07:00:00,
2013-12-21 01:03:00,61.0,56.8,29.92,SSE,153,8.0,13.0,86,0.00,,SKC,0.00,VWS V14.01,2013-12-21 07:03:00,
2013-12-21 01:05:00,61.0,56.8,29.92,SSE,148,6.0,13.0,86,0.00,,SKC,0.00,VWS V14.01,2013-12-21 07:05:00,
2013-12-21 01:08:00,61.1,56.6,29.91,SSW,204,5.0,14.0,85,0.00,,SKC,0.00,VWS V14.01,2013-12-21 07:08:00,
2013-12-21 01:10:00,61.1,56.6,29.91,SE,135,5.0,14.0,85,0.00,,SKC,0.00,VWS V14.01,2013-12-21 07:10:00,
2013-12-21 01:13:00,61.1,56.6,29.91,SSE,162,2.0,17.0,85,0.00,,SKC,0.00,VWS V14.01,2013-12-21 07:13:00,
2013-12-21 01:15:00,61.1,56.6,29.91,SE,141,6.0,17.0,85,0.00,,SKC,0.00,VWS V14.01,2013-12-21 07:15:00,
2013-12-21 01:18:00,61.0,56.8,29.91,SE,139,4.0,13.0,86,0.00,,SKC,0.00,VWS V14.01,2013-12-21 07:18:00,
2013-12-21 01:20:00,61.0,56.8,29.91,SSW,194,3.0,13.0,86,0.00,,SKC,0.00,VWS V14.01,2013-12-21 07:20:00,
2013-12-21 01:23:00,61.0,56.8,29.90,SE,145,7.0,14.0,86,0.00,,SKC,0.00,VWS V14.01,2013-12-21 07:23:00,
2013-12-21 01:25:00,61.0,56.8,29.90,SE,134,4.0,14.0,86,0.00,,SKC,0.00,VWS V14.01,2013-12-21 07:25:00,
2013-12-21 01:28:00,61.0,56.8,29.90,South,191,6.0,14.0,86,0.00,,SKC,0.00,VWS V14.01,2013-12-21 07:28:00,
2013-12-21 01:30:00,61.0,56.8,29.90,ESE,113,8.0,14.0,86,0.00,,SKC,0.00,VWS V14.01,2013-12-21 07:30:00,
2013-12-21 01:33:00,61.0,56.8,29.90,SSW,195,8.0,16.0,86,0.00,,SKC,0.00,VWS V14.01,2013-12-21 07:33:00,
2013-12-21 01:35:00,61.0,56.8,29.90,South,174,9.0,16.0,86,0.00,,SKC,0.00,VWS V14.01,2013-12-21 07:35:00,
2013-12-21 01:38:00,61.0,56.8,29.90,SSW,200,3.0,13.0,86,0.00,,SKC,0.00,VWS V14.01,2013-12-21 07:38:00,
2013-12-21 01:40:00,61.0,56.8,29.90,SSE,156,4.0,13.0,86,0.00,,SKC,0.00,VWS V14.01,2013-12-21 07:40:00,
2013-12-21 01:43:00,61.0,56.8,29.91,SSW,192,9.0,11.0,86,0.00,,SKC,0.00,VWS V14.01,2013-12-21 07:43:00,
2013-12-21 01:45:00,61.1,56.9,29.91,SSW,194,6.0,12.0,86,0.00,,SKC,0.00,VWS V14.01,2013-12-21 07:45:00,
2013-12-21 01:48:00,61.2,57.0,29.90,SSW,204,3.0,14.0,86,0.00,,SKC,0.00,VWS V14.01,2013-12-21 07:48:00,
2013-12-21 01:50:00,61.2,57.0,29.90,South,181,4.0,14.0,86,0.00,,SKC,0.00,VWS V14.01,2013-12-21 07:50:00,
2013-12-21 01:53:00,61.2,57.3,29.90,SSE,156,11.0,14.0,87,0.00,,SKC,0.00,VWS V14.01,2013-12-21 07:53:00,
2013-12-21 01:55:00,61.2,57.3,29.90,SE,132,6.0,15.0,87,0.00,,SKC,0.00,VWS V14.01,2013-12-21 07:55:00,
2013-12-21 01:58:00,61.3,57.4,29.90,SSW,212,6.0,14.0,87,0.00,,SKC,0.00,VWS V14.01,2013-12-21 07:58:00,
2013-12-21 02:00:00,61.3,57.4,29.90,SSW,197,5.0,14.0,87,0.00,,SKC,0.00,VWS V14.01,2013-12-21 08:00:00,
2013-12-21 02:03:00,61.4,57.5,29.90,South,183,7.0,12.0,87,0.00,,SKC,0.00,VWS V14.01,2013-12-21 08:03:00,
2013-12-21 02:05:00,61.4,57.5,29.90,SSW,197,7.0,12.0,87,0.00,,SKC,0.00,VWS V14.01,2013-12-21 08:05:00,
2013-12-21 02:08:00,61.5,57.6,29.90,SSE,155,10.0,17.0,87,0.00,,SKC,0.00,VWS V14.01,2013-12-21 08:08:00,
2013-12-21 02:10:00,61.5,57.6,29.90,SE,143,4.0,17.0,87,0.00,,SKC,0.00,VWS V14.01,2013-12-21 08:10:00,
2013-12-21 02:13:00,61.6,57.7,29.90,SSE,155,11.0,12.0,87,0.00,,SKC,0.00,VWS V14.01,2013-12-21 08:13:00,
2013-12-21 02:15:00,61.6,57.7,29.90,SE,146,8.0,12.0,87,0.00,,SKC,0.00,VWS V14.01,2013-12-21 08:15:00,
2013-12-21 02:18:00,61.6,57.7,29.90,SSW,194,7.0,14.0,87,0.00,,SKC,0.00,VWS V14.01,2013-12-21 08:18:00,
2013-12-21 02:20:00,61.6,57.7,29.90,SSE,158,5.0,14.0,87,0.00,,SKC,0.00,VWS V14.01,2013-12-21 08:20:00,
2013-12-21 02:23:00,61.7,57.8,29.89,South,177,5.0,12.0,87,0.00,,SKC,0.00,VWS V14.01,2013-12-21 08:23:00,
2013-12-21 02:25:00,61.8,57.9,29.89,SSE,153,10.0,12.0,87,0.00,,SKC,0.00,VWS V14.01,2013-12-21 08:25:00,
2013-12-21 02:28:00,61.8,57.9,29.89,South,191,3.0,15.0,87,0.00,,SKC,0.00,VWS V14.01,2013-12-21 08:28:00,
2013-12-21 02:30:00,61.8,57.9,29.89,South,172,8.0,15.0,87,0.00,,SKC,0.00,VWS V14.01,2013-12-21 08:30:00,
2013-12-21 02:33:00,61.8,57.9,29.88,South,169,7.0,12.0,87,0.00,,SKC,0.00,VWS V14.01,2013-12-21 08:33:00,
2013-12-21 02:35:00,61.8,57.9,29.88,SSE,159,6.0,12.0,87,0.00,,SKC,0.00,VWS V14.01,2013-12-21 08:35:00,
2013-12-21 02:38:00,61.7,57.8,29.89,South,179,7.0,11.0,87,0.00,,SKC,0.00,VWS V14.01,2013-12-21 08:38:00,
2013-12-21 02:40:00,61.7,57.8,29.89,SE,146,13.0,15.0,87,0.00,,SKC,0.00,VWS V14.01,2013-12-21 08:40:00,
2013-12-21 02:43:00,61.8,57.9,29.89,SE,127,3.0,13.0,87,0.00,,SKC,0.00,VWS V14.01,2013-12-21 08:43:00,
2013-12-21 02:45:00,61.8,57.9,29.89,SW,228,3.0,13.0,87,0.00,,SKC,0.00,VWS V14.01,2013-12-21 08:45:00,
2013-12-21 02:48:00,61.8,57.9,29.89,South,177,5.0,13.0,87,0.00,,SKC,0.00,VWS V14.01,2013-12-21 08:48:00,
2013-12-21 02:50:00,61.8,57.9,29.89,South,173,5.0,13.0,87,0.00,,SKC,0.00,VWS V14.01,2013-12-21 08:50:00,
2013-12-21 02:53:00,61.8,57.9,29.89,SSE,163,5.0,13.0,87,0.00,,SKC,0.00,VWS V14.01,2013-12-21 08:53:00,
2013-12-21 02:55:00,61.8,57.9,29.89,South,188,5.0,13.0,87,0.00,,SKC,0.00,VWS V14.01,2013-12-21 08:55:00,
2013-12-21 02:58:00,61.8,57.9,29.89,SSW,210,9.0,12.0,87,0.00,,SKC,0.00,VWS V14.01,2013-12-21 08:58:00,
2013-12-21 03:00:00,61.8,57.9,29.89,SSW,197,9.0,12.0,87,0.00,,SKC,0.00,VWS V14.01,2013-12-21 09:00:00,
2013-12-21 03:03:00,61.9,58.0,29.89,SW,217,6.0,12.0,87,0.00,,SKC,0.00,VWS V14.01,2013-12-21 09:03:00,
2013-12-21 03:05:00,61.9,58.0,29.89,SE,139,10.0,12.0,87,0.00,,SKC,0.00,VWS V14.01,2013-12-21 09:05:00,
2013-12-21 03:08:00,61.9,58.0,29.88,SW,222,5.0,16.0,87,0.00,,SKC,0.00,VWS V14.01,2013-12-21 09:08:00,
2013-12-21 03:10:00,61.9,58.0,29.88,SE,127,7.0,16.0,87,0.00,,SKC,0.00,VWS V14.01,2013-12-21 09:10:00,
2013-12-21 03:13:00,62.0,58.1,29.88,SW,229,6.0,16.0,87,0.00,,SKC,0.00,VWS V14.01,2013-12-21 09:13:00,
2013-12-21 03:15:00,62.0,58.1,29.88,South,187,8.0,16.0,87,0.00,,SKC,0.00,VWS V14.01,2013-12-21 09:15:00,
2013-12-21 03:18:00,62.0,58.1,29.89,South,183,4.0,18.0,87,0.00,,SKC,0.00,VWS V14.01,2013-12-21 09:18:00,
2013-12-21 03:20:00,62.0,58.1,29.89,South,177,5.0,18.0,87,0.00,,SKC,0.00,VWS V14.01,2013-12-21 09:20:00,
2013-12-21 03:23:00,61.9,58.0,29.88,SSE,167,3.0,12.0,87,0.00,,SKC,0.00,VWS V14.01,2013-12-21 09:23:00,
2013-12-21 03:25:00,61.9,58.0,29.88,SSE,163,8.0,12.0,87,0.00,,SKC,0.00,VWS V14.01,2013-12-21 09:25:00,
2013-12-21 03:28:00,62.0,58.1,29.88,SE,146,11.0,16.0,87,0.00,,SKC,0.00,VWS V14.01,2013-12-21 09:28:00,
2013-12-21 03:30:00,62.0,58.1,29.88,SSW,206,8.0,16.0,87,0.00,,SKC,0.00,VWS V14.01,2013-12-21 09:30:00,
2013-12-21 03:33:00,62.0,58.1,29.88,South,183,7.0,21.0,87,0.00,,SKC,0.00,VWS V14.01,2013-12-21 09:33:00,
2013-12-21 03:35:00,62.0,58.1,29.88,SSE,153,9.0,21.0,87,0.00,,SKC,0.00,VWS V14.01,2013-12-21 09:35:00,
2013-12-21 03:38:00,62.0,58.1,29.87,South,183,6.0,14.0,87,0.00,,SKC,0.00,VWS V14.01,2013-12-21 09:38:00,
2013-12-21 03:40:00,62.0,58.1,29.87,SSE,162,5.0,14.0,87,0.00,,SKC,0.00,VWS V14.01,2013-12-21 09:40:00,
2013-12-21 03:43:00,62.0,58.1,29.87,South,177,9.0,19.0,87,0.00,,SKC,0.00,VWS V14.01,2013-12-21 09:43:00,
2013-12-21 03:45:00,62.0,58.1,29.87,South,183,9.0,19.0,87,0.00,,SKC,0.00,VWS V14.01,2013-12-21 09:45:00,
2013-12-21 03:48:00,62.0,58.1,29.87,South,174,3.0,16.0,87,0.00,,SKC,0.00,VWS V14.01,2013-12-21 09:48:00,
2013-12-21 03:50:00,62.0,58.1,29.87,SE,139,19.0,19.0,87,0.00,,SKC,0.00,VWS V14.01,2013-12-21 09:50:00,
2013-12-21 03:53:00,62.1,57.9,29.86,South,184,3.0,19.0,86,0.00,,SKC,0.00,VWS V14.01,2013-12-21 09:53:00,
2013-12-21 03:55:00,62.1,57.9,29.86,South,180,6.0,19.0,86,0.00,,SKC,0.00,VWS V14.01,2013-12-21 09:55:00,
2013-12-21 03:58:00,62.0,57.8,29.86,SSE,150,6.0,18.0,86,0.00,,SKC,0.00,VWS V14.01,2013-12-21 09:58:00,
2013-12-21 04:00:00,62.0,57.8,29.86,SSE,150,10.0,18.0,86,0.00,,SKC,0.00,VWS V14.01,2013-12-21 10:00:00,
2013-12-21 04:03:00,62.0,57.8,29.86,South,178,7.0,16.0,86,0.00,,SKC,0.00,VWS V14.01,2013-12-21 10:03:00,
2013-12-21 04:05:00,62.0,57.8,29.86,SE,127,13.0,16.0,86,0.00,,SKC,0.00,VWS V14.01,2013-12-21 10:05:00,
2013-12-21 04:08:00,62.0,57.8,29.85,SSE,150,16.0,19.0,86,0.00,,SKC,0.00,VWS V14.01,2013-12-21 10:08:00,
2013-12-21 04:10:00,62.0,57.8,29.85,South,190,7.0,19.0,86,0.00,,SKC,0.00,VWS V14.01,2013-12-21 10:10:00,
2013-12-21 04:13:00,62.0,57.8,29.84,South,174,20.0,20.0,86,0.00,,SKC,0.00,VWS V14.01,2013-12-21 10:13:00,
2013-12-21 04:15:00,62.0,57.8,29.84,SSE,165,12.0,20.0,86,0.00,,SKC,0.00,VWS V14.01,2013-12-21 10:15:00,
2013-12-21 04:18:00,62.1,57.9,29.86,SW,214,17.0,22.0,86,0.00,,SKC,0.00,VWS V14.01,2013-12-21 10:18:00,
2013-12-21 04:20:00,62.1,57.9,29.86,SSE,148,5.0,22.0,86,0.00,,SKC,0.00,VWS V14.01,2013-12-21 10:20:00,
2013-12-21 04:23:00,62.1,57.9,29.86,SSE,162,7.0,15.0,86,0.00,,SKC,0.00,VWS V14.01,2013-12-21 10:23:00,
2013-12-21 04:25:00,62.1,57.9,29.86,SSE,163,5.0,15.0,86,0.00,,SKC,0.00,VWS V14.01,2013-12-21 10:25:00,
2013-12-21 04:28:00,62.1,57.9,29.86,South,180,3.0,17.0,86,0.00,,SKC,0.00,VWS V14.01,2013-12-21 10:28:00,
2013-12-21 04:30:00,62.1,57.9,29.86,West,264,5.0,17.0,86,0.00,,SKC,0.00,VWS V14.01,2013-12-21 10:30:00,
2013-12-21 04:33:00,62.0,57.8,29.86,South,177,10.0,19.0,86,0.00,,SKC,0.00,VWS V14.01,2013-12-21 10:33:00,
2013-12-21 04:35:00,62.0,57.8,29.86,SE,134,16.0,19.0,86,0.00,,SKC,0.00,VWS V14.01,2013-12-21 10:35:00,
2013-12-21 04:38:00,62.1,57.9,29.85,SSE,150,8.0,16.0,86,0.00,,SKC,0.00,VWS V14.01,2013-12-21 10:38:00,
2013-12-21 04:40:00,62.1,57.9,29.85,SSE,158,8.0,16.0,86,0.00,,SKC,0.00,VWS V14.01,2013-12-21 10:40:00,
2013-12-21 04:43:00,62.0,57.8,29.85,SSW,192,8.0,19.0,86,0.00,,SKC,0.00,VWS V14.01,2013-12-21 10:43:00,
2013-12-21 04:45:00,62.0,57.8,29.85,South,179,5.0,19.0,86,0.00,,SKC,0.00,VWS V14.01,2013-12-21 10:45:00,
2013-12-21 04:48:00,62.0,57.8,29.85,SSE,155,6.0,19.0,86,0.00,,SKC,0.00,VWS V14.01,2013-12-21 10:48:00,
2013-12-21 04:50:00,62.0,57.8,29.85,SSE,158,5.0,19.0,86,0.00,,SKC,0.00,VWS V14.01,2013-12-21 10:50:00,
2013-12-21 04:53:00,62.0,57.5,29.85,SE,135,11.0,25.0,85,0.00,,SKC,0.00,VWS V14.01,2013-12-21 10:53:00,
2013-12-21 04:55:00,62.0,57.8,29.85,SE,132,10.0,25.0,86,0.00,,SKC,0.00,VWS V14.01,2013-12-21 10:55:00,
2013-12-21 04:58:00,62.0,57.5,29.86,SSE,159,14.0,16.0,85,0.00,,SKC,0.00,VWS V14.01,2013-12-21 10:58:00,
2013-12-21 05:00:00,62.0,57.4,29.86,SSE,166,9.0,16.0,85,0.00,,SKC,0.00,VWS V14.01,2013-12-21 11:00:00,
2013-12-21 05:03:00,62.0,57.5,29.85,South,169,12.0,19.0,85,0.00,,SKC,0.00,VWS V14.01,2013-12-21 11:03:00,
2013-12-21 05:05:00,62.0,57.4,29.85,SSE,164,10.0,19.0,85,0.00,,SKC,0.00,VWS V14.01,2013-12-21 11:05:00,
2013-12-21 05:08:00,62.0,57.5,29.85,SSW,206,7.0,16.0,85,0.00,,SKC,0.00,VWS V14.01,2013-12-21 11:08:00,
2013-12-21 05:10:00,62.0,57.4,29.85,SSE,158,7.0,16.0,85,0.00,,SKC,0.00,VWS V14.01,2013-12-21 11:10:00,
2013-12-21 05:13:00,62.0,57.5,29.84,SSE,167,6.0,17.0,85,0.00,,SKC,0.00,VWS V14.01,2013-12-21 11:13:00,
2013-12-21 05:15:00,61.9,57.3,29.84,SE,139,8.0,17.0,85,0.00,,SKC,0.00,VWS V14.01,2013-12-21 11:15:00,
2013-12-21 05:18:00,61.9,57.3,29.84,SSE,154,5.0,20.0,85,0.00,,SKC,0.00,VWS V14.01,2013-12-21 11:18:00,
2013-12-21 05:20:00,61.9,57.3,29.84,East,96,4.0,20.0,85,0.00,,SKC,0.00,VWS V14.01,2013-12-21 11:20:00,
2013-12-21 05:23:00,61.8,57.2,29.84,South,169,14.0,17.0,85,0.00,,SKC,0.00,VWS V14.01,2013-12-21 11:23:00,
2013-12-21 05:25:00,61.8,57.2,29.84,SSE,166,12.0,19.0,85,0.00,,SKC,0.00,VWS V14.01,2013-12-21 11:25:00,
2013-12-21 05:28:00,61.9,57.3,29.84,South,190,10.0,16.0,85,0.00,,SKC,0.00,VWS V14.01,2013-12-21 11:28:00,
2013-12-21 05:30:00,61.9,57.3,29.84,SW,225,9.0,16.0,85,0.00,,SKC,0.00,VWS V14.01,2013-12-21 11:30:00,
2013-12-21 05:33:00,62.0,57.5,29.84,South,189,8.0,27.0,85,0.00,,SKC,0.00,VWS V14.01,2013-12-21 11:33:00,
2013-12-21 05:35:00,62.0,57.4,29.84,SSE,165,6.0,27.0,85,0.00,,SKC,0.00,VWS V14.01,2013-12-21 11:35:00,
2013-12-21 05:38:00,62.0,57.5,29.84,SSW,200,9.0,17.0,85,0.00,,SKC,0.00,VWS V14.01,2013-12-21 11:38:00,
2013-12-21 05:40:00,62.0,57.4,29.84,South,188,5.0,17.0,85,0.00,,SKC,0.00,VWS V14.01,2013-12-21 11:40:00,
2013-12-21 05:43:00,62.1,57.5,29.84,SSW,193,9.0,18.0,85,0.00,,SKC,0.00,VWS V14.01,2013-12-21 11:43:00,
2013-12-21 05:45:00,62.1,57.5,29.84,SSW,198,5.0,18.0,85,0.00,,SKC,0.00,VWS V14.01,2013-12-21 11:45:00,
2013-12-21 05:48:00,62.2,57.3,29.84,SSE,162,9.0,21.0,84,0.00,,SKC,0.00,VWS V14.01,2013-12-21 11:48:00,
2013-12-21 05:50:00,62.2,57.3,29.84,SSE,158,9.0,21.0,84,0.00,,SKC,0.00,VWS V14.01,2013-12-21 11:50:00,
2013-12-21 05:53:00,62.3,57.4,29.84,SSW,197,6.0,21.0,84,0.00,,SKC,0.00,VWS V14.01,2013-12-21 11:53:00,
2013-12-21 05:55:00,62.3,57.4,29.84,SE,146,18.0,21.0,84,0.00,,SKC,0.00,VWS V14.01,2013-12-21 11:55:00,
2013-12-21 05:58:00,62.2,57.3,29.84,SSE,148,10.0,18.0,84,0.00,,SKC,0.00,VWS V14.01,2013-12-21 11:58:00,
2013-12-21 06:00:00,62.2,57.3,29.84,South,187,6.0,18.0,84,0.00,,SKC,0.00,VWS V14.01,2013-12-21 12:00:00,
2013-12-21 06:03:00,62.2,57.3,29.84,SE,141,8.0,22.0,84,0.00,,SKC,0.00,VWS V14.01,2013-12-21 12:03:00,
2013-12-21 06:05:00,62.2,57.3,29.84,SE,145,7.0,22.0,84,0.00,,SKC,0.00,VWS V14.01,2013-12-21 12:05:00,
2013-12-21 06:08:00,62.2,57.3,29.83,South,191,14.0,19.0,84,0.00,,SKC,0.00,VWS V14.01,2013-12-21 12:08:00,
2013-12-21 06:10:00,62.2,57.3,29.83,South,181,14.0,19.0,84,0.00,,SKC,0.00,VWS V14.01,2013-12-21 12:10:00,
2013-12-21 06:13:00,62.3,57.4,29.83,SSE,153,11.0,26.0,84,0.00,,SKC,0.00,VWS V14.01,2013-12-21 12:13:00,
2013-12-21 06:15:00,62.3,57.4,29.83,SSE,156,8.0,26.0,84,0.00,,SKC,0.00,VWS V14.01,2013-12-21 12:15:00,
2013-12-21 06:18:00,62.4,57.5,29.83,SSE,150,8.0,26.0,84,0.00,,SKC,0.00,VWS V14.01,2013-12-21 12:18:00,
2013-12-21 06:20:00,62.4,57.5,29.83,SSE,153,7.0,26.0,84,0.00,,SKC,0.00,VWS V14.01,2013-12-21 12:20:00,
2013-12-21 06:23:00,62.5,57.6,29.83,SSE,167,13.0,17.0,84,0.00,,SKC,0.00,VWS V14.01,2013-12-21 12:23:00,
2013-12-21 06:25:00,62.5,57.6,29.83,SSE,155,4.0,17.0,84,0.00,,SKC,0.00,VWS V14.01,2013-12-21 12:25:00,
2013-12-21 06:28:00,62.5,57.6,29.83,South,172,9.0,18.0,84,0.00,,SKC,0.00,VWS V14.01,2013-12-21 12:28:00,
2013-12-21 06:30:00,62.5,57.6,29.83,SE,134,16.0,18.0,84,0.00,,SKC,0.00,VWS V14.01,2013-12-21 12:30:00,
2013-12-21 06:33:00,62.6,57.7,29.83,South,179,7.0,20.0,84,0.00,,SKC,0.00,VWS V14.01,2013-12-21 12:33:00,
2013-12-21 06:35:00,62.6,57.7,29.83,SSW,201,6.0,20.0,84,0.00,,SKC,0.00,VWS V14.01,2013-12-21 12:35:00,
2013-12-21 06:38:00,62.6,57.7,29.83,SSW,192,6.0,16.0,84,0.00,,SKC,0.00,VWS V14.01,2013-12-21 12:38:00,
2013-12-21 06:40:00,62.6,57.7,29.83,SE,135,24.0,24.0,84,0.00,,SKC,0.00,VWS V14.01,2013-12-21 12:40:00,
2013-12-21 06:43:00,62.6,57.7,29.83,SSE,166,9.0,24.0,84,0.00,,SKC,0.00,VWS V14.01,2013-12-21 12:43:00,
2013-12-21 06:45:00,62.6,57.7,29.83,SSW,195,13.0,24.0,84,0.00,,SKC,0.00,VWS V14.01,2013-12-21 12:45:00,
2013-12-21 06:48:00,62.7,57.8,29.83,South,176,10.0,20.0,84,0.00,,SKC,0.00,VWS V14.01,2013-12-21 12:48:00,
2013-12-21 06:50:00,62.7,57.8,29.83,SSW,197,13.0,20.0,84,0.00,,SKC,0.00,VWS V14.01,2013-12-21 12:50:00,
2013-12-21 06:53:00,62.7,57.8,29.83,SSE,153,10.0,13.0,84,0.00,,SKC,0.00,VWS V14.01,2013-12-21 12:53:00,
2013-12-21 06:55:00,62.7,57.8,29.83,SSE,160,5.0,13.0,84,0.00,,SKC,0.00,VWS V14.01,2013-12-21 12:55:00,
2013-12-21 06:58:00,62.6,57.7,29.84,SSE,166,6.0,14.0,84,0.00,,SKC,0.00,VWS V14.01,2013-12-21 12:58:00,
2013-12-21 07:00:00,62.6,57.7,29.84,South,176,13.0,14.0,84,0.00,,SKC,0.00,VWS V14.01,2013-12-21 13:00:00,
2013-12-21 07:03:00,62.7,57.8,29.84,SSE,149,10.0,18.0,84,0.00,,SKC,0.00,VWS V14.01,2013-12-21 13:03:00,
2013-12-21 07:05:00,62.7,57.8,29.84,South,180,7.0,18.0,84,0.00,,SKC,0.00,VWS V14.01,2013-12-21 13:05:00,
2013-12-21 07:08:00,62.8,57.9,29.84,SSE,159,8.0,14.0,84,0.00,,SKC,0.00,VWS V14.01,2013-12-21 13:08:00,
2013-12-21 07:10:00,62.8,57.9,29.84,SSE,160,6.0,14.0,84,0.00,,SKC,0.00,VWS V14.01,2013-12-21 13:10:00,
2013-12-21 07:13:00,62.9,58.0,29.84,SSW,200,6.0,15.0,84,0.00,,SKC,0.00,VWS V14.01,2013-12-21 13:13:00,
2013-12-21 07:15:00,62.9,58.0,29.84,South,173,4.0,15.0,84,0.00,,SKC,0.00,VWS V14.01,2013-12-21 13:15:00,
2013-12-21 07:18:00,62.9,58.0,29.84,SSW,192,9.0,15.0,84,0.00,,SKC,0.00,VWS V14.01,2013-12-21 13:18:00,
2013-12-21 07:20:00,62.9,58.0,29.84,South,170,8.0,15.0,84,0.00,,SKC,0.00,VWS V14.01,2013-12-21 13:20:00,
2013-12-21 07:23:00,63.1,58.2,29.83,ESE,120,13.0,16.0,84,0.00,,SKC,0.00,VWS V14.01,2013-12-21 13:23:00,
2013-12-21 07:25:00,63.1,58.2,29.83,South,187,5.0,16.0,84,0.00,,SKC,0.00,VWS V14.01,2013-12-21 13:25:00,
2013-12-21 07:28:00,63.2,58.3,29.83,SSE,150,7.0,23.0,84,0.00,,SKC,0.00,VWS V14.01,2013-12-21 13:28:00,
2013-12-21 07:30:00,63.3,58.4,29.83,South,172,12.0,23.0,84,0.00,,SKC,0.00,VWS V14.01,2013-12-21 13:30:00,
2013-12-21 07:33:00,63.5,58.2,29.83,SE,141,13.0,19.0,83,0.00,,SKC,0.00,VWS V14.01,2013-12-21 13:33:00,
2013-12-21 07:35:00,63.5,58.2,29.83,SSE,167,6.0,19.0,83,0.00,,SKC,0.00,VWS V14.01,2013-12-21 13:35:00,
2013-12-21 07:38:00,63.6,58.3,29.83,SSE,153,14.0,15.0,83,0.00,,SKC,0.00,VWS V14.01,2013-12-21 13:38:00,
2013-12-21 07:40:00,63.6,58.3,29.83,SSW,197,9.0,15.0,83,0.00,,SKC,0.00,VWS V14.01,2013-12-21 13:40:00,
2013-12-21 07:43:00,63.7,58.5,29.83,SE,136,21.0,21.0,83,0.00,,SKC,0.00,VWS V14.01,2013-12-21 13:43:00,
2013-12-21 07:45:00,63.8,58.5,29.83,SSE,154,13.0,24.0,83,0.00,,SKC,0.00,VWS V14.01,2013-12-21 13:45:00,
2013-12-21 07:48:00,63.9,58.6,29.82,South,172,12.0,13.0,83,0.00,,SKC,0.00,VWS V14.01,2013-12-21 13:48:00,
2013-12-21 07:50:00,63.8,58.5,29.82,SE,131,8.0,13.0,83,0.00,,SKC,0.00,VWS V14.01,2013-12-21 13:50:00,
2013-12-21 07:53:00,63.9,58.6,29.82,SE,131,12.0,15.0,83,0.00,,SKC,0.00,VWS V14.01,2013-12-21 13:53:00,
2013-12-21 07:55:00,64.0,58.7,29.82,SSE,159,9.0,15.0,83,0.00,,SKC,0.00,VWS V14.01,2013-12-21 13:55:00,
2013-12-21 07:58:00,64.0,58.7,29.83,SE,124,6.0,17.0,83,0.00,,SKC,0.00,VWS V14.01,2013-12-21 13:58:00,
2013-12-21 08:00:00,64.0,58.7,29.83,SSE,153,7.0,17.0,83,0.00,,SKC,0.00,VWS V14.01,2013-12-21 14:00:00,
2013-12-21 08:03:00,64.1,58.8,29.83,South,190,12.0,17.0,83,0.00,,SKC,0.00,VWS V14.01,2013-12-21 14:03:00,
2013-12-21 08:05:00,64.1,58.8,29.83,South,172,9.0,17.0,83,0.00,,SKC,0.00,VWS V14.01,2013-12-21 14:05:00,
2013-12-21 08:08:00,64.2,58.9,29.83,SSW,206,7.0,14.0,83,0.00,,SKC,0.00,VWS V14.01,2013-12-21 14:08:00,
2013-12-21 08:10:00,64.2,58.9,29.83,SE,136,6.0,14.0,83,0.00,,SKC,0.00,VWS V14.01,2013-12-21 14:10:00,
2013-12-21 08:13:00,64.3,59.4,29.83,SE,129,9.0,14.0,84,0.00,,SKC,0.00,VWS V14.01,2013-12-21 14:13:00,
2013-12-21 08:15:00,64.3,59.4,29.83,SE,129,9.0,14.0,84,0.00,,SKC,0.00,VWS V14.01,2013-12-21 14:15:00,
2013-12-21 08:18:00,64.5,59.6,29.83,SW,218,5.0,13.0,84,0.00,,SKC,0.00,VWS V14.01,2013-12-21 14:18:00,
2013-12-21 08:20:00,64.5,59.6,29.83,SW,218,5.0,13.0,84,0.00,,SKC,0.00,VWS V14.01,2013-12-21 14:20:00,
2013-12-21 08:23:00,64.7,59.8,29.83,South,176,5.0,18.0,84,0.00,,SKC,0.00,VWS V14.01,2013-12-21 14:23:00,
2013-12-21 08:25:00,64.7,59.8,29.83,SE,136,4.0,18.0,84,0.00,,SKC,0.00,VWS V14.01,2013-12-21 14:25:00,
2013-12-21 08:29:00,64.8,59.9,29.83,South,174,7.0,10.0,84,0.00,,SKC,0.00,VWS V14.01,2013-12-21 14:29:00,
2013-12-21 08:30:00,64.8,59.9,29.83,SSW,205,4.0,12.0,84,0.00,,SKC,0.00,VWS V14.01,2013-12-21 14:30:00,
2013-12-21 08:34:00,64.9,60.0,29.83,SSE,167,2.0,9.0,84,0.00,,SKC,0.00,VWS V14.01,2013-12-21 14:34:00,
2013-12-21 08:35:00,64.9,60.0,29.83,SSW,203,5.0,14.0,84,0.00,,SKC,0.00,VWS V14.01,2013-12-21 14:35:00,
2013-12-21 08:39:00,65.0,60.0,29.83,South,174,7.0,11.0,84,0.00,,SKC,0.00,VWS V14.01,2013-12-21 14:39:00,
2013-12-21 08:40:00,65.0,60.0,29.82,SSE,148,11.0,18.0,84,0.00,,SKC,0.00,VWS V14.01,2013-12-21 14:40:00,
2013-12-21 08:44:00,65.2,60.2,29.83,South,175,3.0,7.0,84,0.00,,SKC,0.00,VWS V14.01,2013-12-21 14:44:00,
2013-12-21 08:45:00,65.2,60.2,29.83,SSE,149,5.0,15.0,84,0.00,,SKC,0.00,VWS V14.01,2013-12-21 14:45:00,
2013-12-21 08:49:00,65.3,60.3,29.83,SSE,156,5.0,11.0,84,0.00,,SKC,0.00,VWS V14.01,2013-12-21 14:49:00,
2013-12-21 08:50:00,65.3,60.3,29.83,South,182,6.0,13.0,84,0.00,,SKC,0.00,VWS V14.01,2013-12-21 14:50:00,
2013-12-21 08:54:00,65.5,60.5,29.83,South,176,14.0,14.0,84,0.00,,SKC,0.00,VWS V14.01,2013-12-21 14:54:00,
2013-12-21 08:55:00,65.4,60.5,29.83,SSW,200,5.0,16.0,84,0.00,,SKC,0.00,VWS V14.01,2013-12-21 14:55:00,
2013-12-21 08:59:00,65.6,60.6,29.83,SSE,147,11.0,14.0,84,0.00,,SKC,0.00,VWS V14.01,2013-12-21 14:59:00,
2013-12-21 09:00:00,65.6,60.6,29.83,SSW,204,4.0,17.0,84,0.00,,SKC,0.00,VWS V14.01,2013-12-21 15:00:00,
2013-12-21 09:04:00,65.6,60.3,29.83,SE,134,7.0,11.0,83,0.00,,SKC,0.00,VWS V14.01,2013-12-21 15:04:00,
2013-12-21 09:05:00,65.6,60.3,29.83,SSE,150,9.0,18.0,83,0.00,,SKC,0.00,VWS V14.01,2013-12-21 15:05:00,
2013-12-21 09:09:00,65.7,60.7,29.83,SSE,166,15.0,20.0,84,0.00,,SKC,0.00,VWS V14.01,2013-12-21 15:09:00,
2013-12-21 09:10:00,65.7,60.7,29.83,South,169,15.0,15.0,84,0.00,,SKC,0.00,VWS V14.01,2013-12-21 15:10:00,
2013-12-21 09:14:00,65.8,60.8,29.83,SE,139,7.0,15.0,84,0.00,,SKC,0.00,VWS V14.01,2013-12-21 15:14:00,
2013-12-21 09:15:00,65.8,60.8,29.83,South,191,4.0,20.0,84,0.00,,SKC,0.00,VWS V14.01,2013-12-21 15:15:00,
2013-12-21 09:19:00,65.8,60.8,29.83,SE,141,11.0,12.0,84,0.00,,SKC,0.00,VWS V14.01,2013-12-21 15:19:00,
2013-12-21 09:20:00,65.8,60.8,29.83,SE,128,10.0,15.0,84,0.00,,SKC,0.00,VWS V14.01,2013-12-21 15:20:00,
2013-12-21 09:24:00,65.8,60.8,29.83,South,181,9.0,15.0,84,0.00,,SKC,0.00,VWS V14.01,2013-12-21 15:24:00,
2013-12-21 09:25:00,65.8,60.8,29.83,SE,128,9.0,18.0,84,0.00,,SKC,0.00,VWS V14.01,2013-12-21 15:25:00,
2013-12-21 09:29:00,65.7,60.7,29.83,South,171,9.0,13.0,84,0.00,,SKC,0.00,VWS V14.01,2013-12-21 15:29:00,
2013-12-21 09:30:00,65.7,60.7,29.83,SSW,211,4.0,18.0,84,0.00,,SKC,0.00,VWS V14.01,2013-12-21 15:30:00,
2013-12-21 09:34:00,65.8,60.8,29.82,SSE,147,8.0,20.0,84,0.00,,SKC,0.00,VWS V14.01,2013-12-21 15:34:00,
2013-12-21 09:35:00,65.8,60.8,29.83,SSE,155,7.0,16.0,84,0.00,,SKC,0.00,VWS V14.01,2013-12-21 15:35:00,
2013-12-21 09:39:00,65.7,60.7,29.83,SSE,150,8.0,8.0,84,0.00,,SKC,0.00,VWS V14.01,2013-12-21 15:39:00,
2013-12-21 09:40:00,65.7,60.7,29.83,SE,138,7.0,20.0,84,0.00,,SKC,0.00,VWS V14.01,2013-12-21 15:40:00,
2013-12-21 09:45:00,65.6,60.6,29.82,South,179,10.0,16.0,84,0.00,,SKC,0.00,VWS V14.01,2013-12-21 15:45:00,
2013-12-21 09:49:00,65.6,60.6,29.83,SE,145,10.0,10.0,84,0.00,,SKC,0.00,VWS V14.01,2013-12-21 15:49:00,
2013-12-21 09:50:00,65.6,60.6,29.83,SE,145,10.0,10.0,84,0.00,,SKC,0.00,VWS V14.01,2013-12-21 15:50:00,
2013-12-21 09:54:00,65.5,60.9,29.83,SE,143,6.0,9.0,85,0.00,,SKC,0.00,VWS V14.01,2013-12-21 15:54:00,
2013-12-21 09:55:00,65.5,60.9,29.83,South,191,4.0,25.0,85,0.00,,SKC,0.00,VWS V14.01,2013-12-21 15:55:00,
2013-12-21 09:59:00,65.5,60.9,29.83,SSW,208,7.0,11.0,85,0.00,,SKC,0.00,VWS V14.01,2013-12-21 15:59:00,
2013-12-21 10:00:00,65.5,60.9,29.83,SE,134,7.0,14.0,85,0.00,,SKC,0.00,VWS V14.01,2013-12-21 16:00:00,
2013-12-21 10:04:00,65.5,60.9,29.83,SE,136,5.0,13.0,85,0.00,,SKC,0.00,VWS V14.01,2013-12-21 16:04:00,
2013-12-21 10:05:00,65.5,60.9,29.83,South,179,7.0,17.0,85,0.00,,SKC,0.00,VWS V14.01,2013-12-21 16:05:00,
2013-12-21 10:09:00,65.5,60.9,29.83,SSW,208,11.0,15.0,85,0.00,,SKC,0.00,VWS V14.01,2013-12-21 16:09:00,
2013-12-21 10:10:00,65.5,60.9,29.83,SE,139,9.0,21.0,85,0.00,,SKC,0.00,VWS V14.01,2013-12-21 16:10:00,
2013-12-21 10:14:00,65.5,60.9,29.83,SSE,155,7.0,7.0,85,0.00,,SKC,0.00,VWS V14.01,2013-12-21 16:14:00,
2013-12-21 10:15:00,65.5,60.9,29.83,South,181,6.0,16.0,85,0.00,,SKC,0.00,VWS V14.01,2013-12-21 16:15:00,
2013-12-21 10:19:00,65.5,60.9,29.83,South,187,14.0,14.0,85,0.00,,SKC,0.00,VWS V14.01,2013-12-21 16:19:00,
2013-12-21 10:20:00,65.5,60.9,29.83,SSE,159,4.0,12.0,85,0.00,,SKC,0.00,VWS V14.01,2013-12-21 16:20:00,
2013-12-21 10:24:00,65.7,61.1,29.82,South,190,10.0,10.0,85,0.00,,SKC,0.00,VWS V14.01,2013-12-21 16:24:00,
2013-12-21 10:25:00,65.6,61.0,29.82,SSE,153,4.0,18.0,85,0.00,,SKC,0.00,VWS V14.01,2013-12-21 16:25:00,
2013-12-21 10:29:00,65.8,61.2,29.81,South,173,4.0,6.0,85,0.00,,SKC,0.00,VWS V14.01,2013-12-21 16:29:00,
2013-12-21 10:30:00,65.8,61.2,29.82,SE,139,4.0,16.0,85,0.00,,SKC,0.00,VWS V14.01,2013-12-21 16:30:00,
2013-12-21 10:34:00,66.0,61.4,29.81,SSE,156,7.0,17.0,85,0.00,,SKC,0.00,VWS V14.01,2013-12-21 16:34:00,
2013-12-21 10:35:00,66.0,61.4,29.81,South,191,17.0,17.0,85,0.00,,SKC,0.00,VWS V14.01,2013-12-21 16:35:00,
2013-12-21 10:39:00,66.2,61.6,29.81,South,169,11.0,12.0,85,0.00,,SKC,0.00,VWS V14.01,2013-12-21 16:39:00,
2013-12-21 10:40:00,66.2,61.6,29.81,SSE,150,7.0,17.0,85,0.00,,SKC,0.00,VWS V14.01,2013-12-21 16:40:00,
2013-12-21 10:44:00,66.2,61.6,29.81,SSW,197,10.0,10.0,85,0.00,,SKC,0.00,VWS V14.01,2013-12-21 16:44:00,
2013-12-21 10:45:00,66.3,61.7,29.81,SE,144,9.0,13.0,85,0.00,,SKC,0.00,VWS V14.01,2013-12-21 16:45:00,
2013-12-21 10:49:00,66.2,61.6,29.81,South,174,6.0,10.0,85,0.00,,SKC,0.00,VWS V14.01,2013-12-21 16:49:00,
2013-12-21 10:50:00,66.2,61.6,29.81,South,191,10.0,13.0,85,0.00,,SKC,0.00,VWS V14.01,2013-12-21 16:50:00,
2013-12-21 10:54:00,66.2,61.6,29.81,SSE,167,6.0,6.0,85,0.00,,SKC,0.00,VWS V14.01,2013-12-21 16:54:00,
2013-12-21 10:55:00,66.2,61.6,29.81,SSE,158,5.0,15.0,85,0.00,,SKC,0.00,VWS V14.01,2013-12-21 16:55:00,
2013-12-21 10:59:00,66.2,61.9,29.81,SSW,204,9.0,14.0,86,0.00,,SKC,0.00,VWS V14.01,2013-12-21 16:59:00,
2013-12-21 11:00:00,66.2,61.9,29.81,SSW,211,11.0,17.0,86,0.00,,SKC,0.00,VWS V14.01,2013-12-21 17:00:00,
2013-12-21 11:04:00,66.2,61.9,29.81,SSW,210,7.0,10.0,86,0.00,,SKC,0.00,VWS V14.01,2013-12-21 17:04:00,
2013-12-21 11:05:00,66.2,61.9,29.81,South,170,8.0,18.0,86,0.00,,SKC,0.00,VWS V14.01,2013-12-21 17:05:00,
2013-12-21 11:09:00,66.1,61.8,29.81,SW,225,6.0,6.0,86,0.00,,SKC,0.00,VWS V14.01,2013-12-21 17:09:00,
2013-12-21 11:10:00,66.1,61.8,29.81,SW,229,2.0,13.0,86,0.00,,SKC,0.00,VWS V14.01,2013-12-21 17:10:00,
2013-12-21 11:14:00,66.1,61.8,29.80,South,174,8.0,8.0,86,0.00,,SKC,0.00,VWS V14.01,2013-12-21 17:14:00,
2013-12-21 11:15:00,66.1,61.8,29.81,SW,218,7.0,15.0,86,0.00,,SKC,0.00,VWS V14.01,2013-12-21 17:15:00,
2013-12-21 11:19:00,66.2,61.9,29.80,SE,145,4.0,11.0,86,0.00,,SKC,0.00,VWS V14.01,2013-12-21 17:19:00,
2013-12-21 11:20:00,66.2,61.9,29.80,SSW,198,7.0,15.0,86,0.00,,SKC,0.00,VWS V14.01,2013-12-21 17:20:00,
2013-12-21 11:24:00,66.4,62.1,29.80,SSE,167,9.0,13.0,86,0.00,,SKC,0.00,VWS V14.01,2013-12-21 17:24:00,
2013-12-21 11:25:00,66.4,62.1,29.80,South,178,6.0,11.0,86,0.00,,SKC,0.00,VWS V14.01,2013-12-21 17:25:00,
2013-12-21 11:29:00,66.6,62.3,29.80,SSE,167,4.0,10.0,86,0.00,,SKC,0.00,VWS V14.01,2013-12-21 17:29:00,
2013-12-21 11:30:00,66.6,62.3,29.80,SSE,156,10.0,18.0,86,0.00,,SKC,0.00,VWS V14.01,2013-12-21 17:30:00,
2013-12-21 11:34:00,66.8,62.5,29.80,SSE,150,8.0,10.0,86,0.00,,SKC,0.00,VWS V14.01,2013-12-21 17:34:00,
2013-12-21 11:35:00,66.8,62.5,29.80,South,186,5.0,16.0,86,0.00,,SKC,0.00,VWS V14.01,2013-12-21 17:35:00,
2013-12-21 11:39:00,67.0,62.7,29.79,SSE,154,13.0,18.0,86,0.00,,SKC,0.00,VWS V14.01,2013-12-21 17:39:00,
2013-12-21 11:40:00,67.0,62.7,29.79,SSE,150,11.0,12.0,86,0.00,,SKC,0.00,VWS V14.01,2013-12-21 17:40:00,
2013-12-21 11:44:00,67.0,62.7,29.79,South,169,12.0,15.0,86,0.00,,SKC,0.00,VWS V14.01,2013-12-21 17:44:00,
2013-12-21 11:45:00,67.0,62.7,29.79,SSW,206,4.0,18.0,86,0.00,,SKC,0.00,VWS V14.01,2013-12-21 17:45:00,
2013-12-21 11:49:00,67.1,62.8,29.79,SSW,204,7.0,10.0,86,0.00,,SKC,0.00,VWS V14.01,2013-12-21 17:49:00,
2013-12-21 11:50:00,67.1,62.8,29.79,SE,139,12.0,15.0,86,0.00,,SKC,0.00,VWS V14.01,2013-12-21 17:50:00,
2013-12-21 11:54:00,67.2,62.5,29.79,South,176,5.0,12.0,85,0.00,,SKC,0.00,VWS V14.01,2013-12-21 17:54:00,
2013-12-21 11:55:00,67.2,62.5,29.79,SSE,156,10.0,14.0,85,0.00,,SKC,0.00,VWS V14.01,2013-12-21 17:55:00,
2013-12-21 11:59:00,67.5,62.8,29.78,SW,214,4.0,17.0,85,0.00,,SKC,0.00,VWS V14.01,2013-12-21 17:59:00,
2013-12-21 12:00:00,67.5,62.8,29.78,SE,134,10.0,12.0,85,0.00,,SKC,0.00,VWS V14.01,2013-12-21 18:00:00,
2013-12-21 12:04:00,67.7,62.7,29.78,South,181,9.0,10.0,84,0.00,,SKC,0.00,VWS V14.01,2013-12-21 18:04:00,
2013-12-21 12:05:00,67.7,63.0,29.78,South,171,6.0,17.0,85,0.00,,SKC,0.00,VWS V14.01,2013-12-21 18:05:00,
2013-12-21 12:09:00,67.9,62.9,29.78,SSE,150,5.0,7.0,84,0.00,,SKC,0.00,VWS V14.01,2013-12-21 18:09:00,
2013-12-21 12:10:00,67.9,62.9,29.78,SSE,148,7.0,18.0,84,0.00,,SKC,0.00,VWS V14.01,2013-12-21 18:10:00,
2013-12-21 12:14:00,68.1,63.1,29.77,South,176,7.0,17.0,84,0.00,,SKC,0.00,VWS V14.01,2013-12-21 18:14:00,
2013-12-21 12:15:00,68.1,63.1,29.78,SSE,167,17.0,17.0,84,0.00,,SKC,0.00,VWS V14.01,2013-12-21 18:15:00,
2013-12-21 12:19:00,68.3,62.9,29.77,South,174,5.0,6.0,83,0.00,,SKC,0.00,VWS V14.01,2013-12-21 18:19:00,
2013-12-21 12:20:00,68.3,62.9,29.77,South,181,6.0,17.0,83,0.00,,SKC,0.00,VWS V14.01,2013-12-21 18:20:00,
2013-12-21 12:24:00,68.4,63.0,29.77,South,173,3.0,3.0,83,0.00,,SKC,0.00,VWS V14.01,2013-12-21 18:24:00,
2013-12-21 12:25:00,68.4,63.0,29.77,SSE,160,2.0,12.0,83,0.00,,SKC,0.00,VWS V14.01,2013-12-21 18:25:00,
2013-12-21 12:29:00,68.4,63.0,29.77,South,176,14.0,15.0,83,0.00,,SKC,0.00,VWS V14.01,2013-12-21 18:29:00,
2013-12-21 12:30:00,68.4,63.0,29.77,South,189,10.0,20.0,83,0.00,,SKC,0.00,VWS V14.01,2013-12-21 18:30:00,
2013-12-21 12:34:00,68.4,63.0,29.77,SSW,204,8.0,10.0,83,0.00,,SKC,0.00,VWS V14.01,2013-12-21 18:34:00,
2013-12-21 12:35:00,68.3,62.9,29.77,South,172,7.0,15.0,83,0.00,,SKC,0.00,VWS V14.01,2013-12-21 18:35:00,
2013-12-21 12:39:00,68.3,63.3,29.76,SSW,194,5.0,11.0,84,0.00,,SKC,0.00,VWS V14.01,2013-12-21 18:39:00,
2013-12-21 12:40:00,68.3,62.9,29.76,SSE,165,10.0,18.0,83,0.00,,SKC,0.00,VWS V14.01,2013-12-21 18:40:00,
2013-12-21 12:44:00,68.2,63.2,29.76,SSE,150,12.0,12.0,84,0.00,,SKC,0.00,VWS V14.01,2013-12-21 18:44:00,
2013-12-21 12:45:00,68.2,63.2,29.76,SSW,200,6.0,16.0,84,0.00,,SKC,0.00,VWS V14.01,2013-12-21 18:45:00,
2013-12-21 12:49:00,68.2,63.2,29.76,SE,145,5.0,8.0,84,0.00,,SKC,0.00,VWS V14.01,2013-12-21 18:49:00,
2013-12-21 12:50:00,68.2,63.2,29.76,SE,135,7.0,16.0,84,0.00,,SKC,0.00,VWS V14.01,2013-12-21 18:50:00,
2013-12-21 12:54:00,68.3,63.3,29.75,SSE,156,5.0,12.0,84,0.00,,SKC,0.00,VWS V14.01,2013-12-21 18:54:00,
2013-12-21 12:55:00,68.3,63.3,29.75,SSE,162,9.0,19.0,84,0.00,,SKC,0.00,VWS V14.01,2013-12-21 18:55:00,
2013-12-21 12:59:00,68.3,63.3,29.75,ESE,105,13.0,13.0,84,0.00,,SKC,0.00,VWS V14.01,2013-12-21 18:59:00,
2013-12-21 13:00:00,68.3,63.3,29.75,SSE,160,4.0,18.0,84,0.00,,SKC,0.00,VWS V14.01,2013-12-21 19:00:00,
2013-12-21 13:04:00,68.4,63.4,29.75,South,184,4.0,8.0,84,0.00,,SKC,0.00,VWS V14.01,2013-12-21 19:04:00,
2013-12-21 13:05:00,68.4,63.4,29.76,South,186,5.0,16.0,84,0.00,,SKC,0.00,VWS V14.01,2013-12-21 19:05:00,
2013-12-21 13:09:00,68.5,63.1,29.75,ESE,120,3.0,6.0,83,0.00,,SKC,0.00,VWS V14.01,2013-12-21 19:09:00,
2013-12-21 13:10:00,68.5,63.1,29.76,SE,143,4.0,12.0,83,0.00,,SKC,0.00,VWS V14.01,2013-12-21 19:10:00,
2013-12-21 13:14:00,68.5,63.1,29.75,SE,145,9.0,10.0,83,0.00,,SKC,0.00,VWS V14.01,2013-12-21 19:14:00,
2013-12-21 13:15:00,68.5,63.1,29.75,South,189,6.0,11.0,83,0.00,,SKC,0.00,VWS V14.01,2013-12-21 19:15:00,
2013-12-21 13:19:00,68.4,63.0,29.75,South,188,7.0,10.0,83,0.00,,SKC,0.00,VWS V14.01,2013-12-21 19:19:00,
2013-12-21 13:20:00,68.4,63.0,29.75,SSW,200,9.0,14.0,83,0.00,,SKC,0.00,VWS V14.01,2013-12-21 19:20:00,
2013-12-21 13:24:00,68.3,62.9,29.75,South,174,8.0,13.0,83,0.00,,SKC,0.00,VWS V14.01,2013-12-21 19:24:00,
2013-12-21 13:25:00,68.3,62.9,29.75,SE,144,9.0,18.0,83,0.00,,SKC,0.00,VWS V14.01,2013-12-21 19:25:00,
2013-12-21 13:29:00,68.3,62.9,29.75,South,181,3.0,4.0,83,0.00,,SKC,0.00,VWS V14.01,2013-12-21 19:29:00,
2013-12-21 13:30:00,68.3,62.9,29.75,South,181,2.0,13.0,83,0.00,,SKC,0.00,VWS V14.01,2013-12-21 19:30:00,
2013-12-21 13:34:00,68.2,62.8,29.75,SSW,205,3.0,5.0,83,0.00,,SKC,0.00,VWS V14.01,2013-12-21 19:34:00,
2013-12-21 13:35:00,68.2,62.8,29.75,NE,41,5.0,14.0,83,0.00,,SKC,0.00,VWS V14.01,2013-12-21 19:35:00,
2013-12-21 13:39:00,68.1,62.8,29.75,SSE,165,3.0,3.0,83,0.00,,SKC,0.00,VWS V14.01,2013-12-21 19:39:00,
2013-12-21 13:40:00,68.1,62.8,29.75,SE,142,3.0,9.0,83,0.00,,SKC,0.00,VWS V14.01,2013-12-21 19:40:00,
2013-12-21 13:44:00,68.0,63.0,29.75,SSE,160,4.0,8.0,84,0.00,,SKC,0.00,VWS V14.01,2013-12-21 19:44:00,
2013-12-21 13:45:00,68.1,63.1,29.75,South,191,7.0,11.0,84,0.00,,SKC,0.00,VWS V14.01,2013-12-21 19:45:00,
2013-12-21 13:49:00,67.9,62.9,29.75,SSE,166,8.0,10.0,84,0.00,,SKC,0.00,VWS V14.01,2013-12-21 19:49:00,
2013-12-21 13:50:00,67.9,62.9,29.75,South,191,5.0,10.0,84,0.00,,SKC,0.00,VWS V14.01,2013-12-21 19:50:00,
2013-12-21 13:54:00,67.9,62.9,29.75,SSE,153,8.0,11.0,84,0.00,,SKC,0.00,VWS V14.01,2013-12-21 19:54:00,
2013-12-21 13:55:00,67.9,62.9,29.75,SW,214,8.0,11.0,84,0.00,,SKC,0.00,VWS V14.01,2013-12-21 19:55:00,
2013-12-21 13:58:00,67.8,63.1,29.75,SSW,195,6.0,7.0,85,0.00,,SKC,0.00,VWS V14.01,2013-12-21 19:58:00,
2013-12-21 14:00:00,67.9,63.2,29.74,South,169,7.0,11.0,85,0.00,,SKC,0.00,VWS V14.01,2013-12-21 20:00:00,
2013-12-21 14:03:00,67.6,63.3,29.75,SE,144,5.0,5.0,86,0.00,,SKC,0.00,VWS V14.01,2013-12-21 20:03:00,
2013-12-21 14:05:00,67.7,63.4,29.75,South,180,3.0,9.0,86,0.00,,SKC,0.00,VWS V14.01,2013-12-21 20:05:00,
2013-12-21 14:08:00,67.0,63.3,29.74,SSE,162,4.0,4.0,88,0.01,,SKC,0.01,VWS V14.01,2013-12-21 20:08:00,
2013-12-21 14:10:00,67.1,63.4,29.75,SSE,162,2.0,11.0,88,0.01,,SKC,0.01,VWS V14.01,2013-12-21 20:10:00,
2013-12-21 14:13:00,66.5,63.5,29.74,SSE,150,8.0,8.0,90,0.01,,SKC,0.01,VWS V14.01,2013-12-21 20:13:00,
2013-12-21 14:15:00,66.5,63.2,29.74,SE,136,8.0,8.0,89,0.01,,SKC,0.01,VWS V14.01,2013-12-21 20:15:00,
2013-12-21 14:18:00,66.2,63.2,29.74,South,189,5.0,5.0,90,0.01,,SKC,0.01,VWS V14.01,2013-12-21 20:18:00,
2013-12-21 14:20:00,66.2,63.2,29.74,South,180,4.0,8.0,90,0.01,,SKC,0.01,VWS V14.01,2013-12-21 20:20:00,
2013-12-21 14:23:00,66.1,63.4,29.74,South,170,3.0,5.0,91,0.01,,SKC,0.01,VWS V14.01,2013-12-21 20:23:00,
2013-12-21 14:25:00,66.1,63.4,29.74,SSE,156,5.0,11.0,91,0.01,,SKC,0.01,VWS V14.01,2013-12-21 20:25:00,
2013-12-21 14:28:00,66.0,63.3,29.74,SSE,154,6.0,6.0,91,0.01,,SKC,0.01,VWS V14.01,2013-12-21 20:28:00,
2013-12-21 14:30:00,66.0,63.3,29.74,SSE,149,3.0,6.0,91,0.01,,SKC,0.01,VWS V14.01,2013-12-21 20:30:00,
2013-12-21 14:33:00,66.0,63.3,29.74,South,169,6.0,8.0,91,0.01,,SKC,0.01,VWS V14.01,2013-12-21 20:33:00,
2013-12-21 14:35:00,66.0,63.3,29.74,South,179,5.0,10.0,91,0.01,,SKC,0.01,VWS V14.01,2013-12-21 20:35:00,
2013-12-21 14:38:00,66.0,63.6,29.75,SSW,197,4.0,6.0,92,0.01,,SKC,0.01,VWS V14.01,2013-12-21 20:38:00,
2013-12-21 14:40:00,66.0,63.6,29.74,SE,135,6.0,11.0,92,0.01,,SKC,0.01,VWS V14.01,2013-12-21 20:40:00,
2013-12-21 14:43:00,66.0,63.6,29.74,SE,139,11.0,11.0,92,0.02,,SKC,0.02,VWS V14.01,2013-12-21 20:43:00,
2013-12-21 14:45:00,66.0,63.6,29.74,South,170,6.0,13.0,92,0.02,,SKC,0.02,VWS V14.01,2013-12-21 20:45:00,
2013-12-21 14:48:00,65.8,63.7,29.74,SE,141,9.0,10.0,93,0.02,,SKC,0.02,VWS V14.01,2013-12-21 20:48:00,
2013-12-21 14:50:00,65.8,63.7,29.74,South,174,6.0,13.0,93,0.02,,SKC,0.02,VWS V14.01,2013-12-21 20:50:00,
2013-12-21 14:53:00,65.6,63.8,29.74,SSW,210,3.0,4.0,94,0.03,,SKC,0.03,VWS V14.01,2013-12-21 20:53:00,
2013-12-21 14:55:00,65.6,63.8,29.74,South,187,4.0,10.0,94,0.03,,SKC,0.03,VWS V14.01,2013-12-21 20:55:00,
2013-12-21 14:58:00,65.4,63.6,29.74,WSW,238,5.0,5.0,94,0.04,,SKC,0.04,VWS V14.01,2013-12-21 20:58:00,
2013-12-21 15:00:00,65.4,63.6,29.74,SE,144,3.0,8.0,94,0.04,,SKC,0.04,VWS V14.01,2013-12-21 21:00:00,
2013-12-21 15:03:00,65.3,63.8,29.74,SE,138,7.0,7.0,95,0.07,,SKC,0.07,VWS V14.01,2013-12-21 21:03:00,
2013-12-21 15:05:00,65.3,63.8,29.74,SE,131,7.0,9.0,95,0.07,,SKC,0.07,VWS V14.01,2013-12-21 21:05:00,
2013-12-21 15:08:00,65.1,63.6,29.74,SE,139,11.0,14.0,95,0.07,,SKC,0.08,VWS V14.01,2013-12-21 21:08:00,
2013-12-21 15:10:00,65.2,63.7,29.74,South,169,12.0,16.0,95,0.08,,SKC,0.08,VWS V14.01,2013-12-21 21:10:00,
2013-12-21 15:13:00,65.1,63.6,29.74,South,191,7.0,7.0,95,0.08,,SKC,0.09,VWS V14.01,2013-12-21 21:13:00,
2013-12-21 15:15:00,65.1,63.6,29.74,South,189,6.0,14.0,95,0.08,,SKC,0.09,VWS V14.01,2013-12-21 21:15:00,
2013-12-21 15:18:00,65.1,63.6,29.74,SE,146,4.0,4.0,95,0.08,,SKC,0.09,VWS V14.01,2013-12-21 21:18:00,
2013-12-21 15:20:00,65.0,63.5,29.74,SE,134,4.0,13.0,95,0.08,,SKC,0.09,VWS V14.01,2013-12-21 21:20:00,
2013-12-21 15:23:00,65.0,63.5,29.74,SSW,210,2.0,4.0,95,0.08,,SKC,0.09,VWS V14.01,2013-12-21 21:23:00,
2013-12-21 15:25:00,65.0,63.5,29.74,ESE,113,4.0,10.0,95,0.08,,SKC,0.09,VWS V14.01,2013-12-21 21:25:00,
2013-12-21 15:28:00,65.0,63.5,29.74,ESE,120,4.0,4.0,95,0.08,,SKC,0.09,VWS V14.01,2013-12-21 21:28:00,
2013-12-21 15:30:00,65.0,63.5,29.74,SE,129,4.0,11.0,95,0.08,,SKC,0.09,VWS V14.01,2013-12-21 21:30:00,
2013-12-21 15:33:00,65.0,63.5,29.74,South,187,4.0,6.0,95,0.08,,SKC,0.09,VWS V14.01,2013-12-21 21:33:00,
2013-12-21 15:35:00,65.0,63.5,29.74,SW,215,6.0,12.0,95,0.08,,SKC,0.09,VWS V14.01,2013-12-21 21:35:00,
2013-12-21 15:38:00,65.1,63.6,29.73,SSE,165,2.0,4.0,95,0.08,,SKC,0.09,VWS V14.01,2013-12-21 21:38:00,
2013-12-21 15:40:00,65.1,63.6,29.73,SSE,163,4.0,10.0,95,0.08,,SKC,0.09,VWS V14.01,2013-12-21 21:40:00,
2013-12-21 15:43:00,65.1,63.6,29.74,South,186,4.0,4.0,95,0.07,,SKC,0.09,VWS V14.01,2013-12-21 21:43:00,
2013-12-21 15:45:00,65.1,63.6,29.74,SSE,167,4.0,9.0,95,0.08,,SKC,0.09,VWS V14.01,2013-12-21 21:45:00,
2013-12-21 15:48:00,65.4,63.6,29.73,South,179,7.0,11.0,94,0.07,,SKC,0.09,VWS V14.01,2013-12-21 21:48:00,
2013-12-21 15:50:00,65.4,63.6,29.74,SE,146,11.0,13.0,94,0.07,,SKC,0.09,VWS V14.01,2013-12-21 21:50:00,
2013-12-21 15:53:00,65.8,63.7,29.73,SSW,198,5.0,5.0,93,0.06,,SKC,0.09,VWS V14.01,2013-12-21 21:53:00,
2013-12-21 15:55:00,65.8,63.7,29.73,SSE,150,3.0,12.0,93,0.07,,SKC,0.09,VWS V14.01,2013-12-21 21:55:00,
2013-12-21 15:58:00,65.9,63.8,29.72,South,191,3.0,3.0,93,0.05,,SKC,0.09,VWS V14.01,2013-12-21 21:58:00,
2013-12-21 16:00:00,65.9,63.8,29.72,SSE,160,3.0,11.0,93,0.06,,SKC,0.09,VWS V14.01,2013-12-21 22:00:00,
2013-12-21 16:03:00,66.0,63.6,29.72,SE,131,5.0,5.0,92,0.02,,SKC,0.09,VWS V14.01,2013-12-21 22:03:00,
2013-12-21 16:05:00,66.0,63.6,29.72,SE,142,4.0,10.0,92,0.05,,SKC,0.09,VWS V14.01,2013-12-21 22:05:00,
2013-12-21 16:08:00,66.2,63.8,29.72,SE,144,4.0,4.0,92,0.02,,SKC,0.10,VWS V14.01,2013-12-21 22:08:00,
2013-12-21 16:10:00,66.2,63.8,29.72,SSE,148,4.0,14.0,92,0.03,,SKC,0.10,VWS V14.01,2013-12-21 22:10:00,
2013-12-21 16:13:00,66.3,63.9,29.72,SSE,156,6.0,7.0,92,0.01,,SKC,0.10,VWS V14.01,2013-12-21 22:13:00,
2013-12-21 16:15:00,66.3,63.9,29.72,SSE,160,7.0,12.0,92,0.02,,SKC,0.10,VWS V14.01,2013-12-21 22:15:00,
2013-12-21 16:18:00,66.3,63.9,29.72,SSE,148,8.0,8.0,92,0.01,,SKC,0.10,VWS V14.01,2013-12-21 22:18:00,
2013-12-21 16:20:00,66.3,63.9,29.72,SE,136,7.0,12.0,92,0.01,,SKC,0.10,VWS V14.01,2013-12-21 22:20:00,
2013-12-21 16:23:00,66.5,63.8,29.72,South,173,2.0,2.0,91,0.01,,SKC,0.10,VWS V14.01,2013-12-21 22:23:00,
2013-12-21 16:25:00,66.5,63.8,29.72,SSE,154,2.0,14.0,91,0.01,,SKC,0.10,VWS V14.01,2013-12-21 22:25:00,
2013-12-21 16:28:00,66.6,63.9,29.71,SSW,204,6.0,6.0,91,0.01,,SKC,0.10,VWS V14.01,2013-12-21 22:28:00,
2013-12-21 16:30:00,66.6,63.9,29.72,SW,217,5.0,14.0,91,0.01,,SKC,0.10,VWS V14.01,2013-12-21 22:30:00,
2013-12-21 16:33:00,66.7,64.0,29.71,SE,139,6.0,7.0,91,0.01,,SKC,0.10,VWS V14.01,2013-12-21 22:33:00,
2013-12-21 16:35:00,66.7,64.0,29.71,South,183,7.0,13.0,91,0.01,,SKC,0.10,VWS V14.01,2013-12-21 22:35:00,
2013-12-21 16:38:00,67.0,64.0,29.72,SSE,166,8.0,8.0,90,0.01,,SKC,0.10,VWS V14.01,2013-12-21 22:38:00,
2013-12-21 16:40:00,67.0,64.0,29.72,South,183,6.0,14.0,90,0.01,,SKC,0.10,VWS V14.01,2013-12-21 22:40:00,
2013-12-21 16:43:00,67.2,64.2,29.72,SSE,159,4.0,14.0,90,0.01,,SKC,0.10,VWS V14.01,2013-12-21 22:43:00,
2013-12-21 16:45:00,67.2,64.2,29.72,SSE,159,4.0,14.0,90,0.01,,SKC,0.10,VWS V14.01,2013-12-21 22:45:00,
2013-12-21 16:48:00,67.3,64.0,29.71,ESE,123,12.0,18.0,89,0.01,,SKC,0.10,VWS V14.01,2013-12-21 22:48:00,
2013-12-21 16:50:00,67.3,64.0,29.71,SE,136,18.0,18.0,89,0.01,,SKC,0.10,VWS V14.01,2013-12-21 22:50:00,
2013-12-21 16:53:00,67.5,64.2,29.72,ESE,113,14.0,14.0,89,0.01,,SKC,0.10,VWS V14.01,2013-12-21 22:53:00,
2013-12-21 16:55:00,67.5,64.2,29.71,SSE,153,11.0,18.0,89,0.01,,SKC,0.10,VWS V14.01,2013-12-21 22:55:00,
2013-12-21 16:58:00,67.7,64.0,29.72,SSW,195,6.0,23.0,88,0.01,,SKC,0.10,VWS V14.01,2013-12-21 22:58:00,
2013-12-21 17:00:00,67.7,64.0,29.72,SSW,195,6.0,23.0,88,0.01,,SKC,0.10,VWS V14.01,2013-12-21 23:00:00,
2013-12-21 17:03:00,67.9,64.2,29.71,South,191,6.0,14.0,88,0.01,,SKC,0.10,VWS V14.01,2013-12-21 23:03:00,
2013-12-21 17:05:00,67.9,64.2,29.71,South,191,6.0,14.0,88,0.01,,SKC,0.10,VWS V14.01,2013-12-21 23:05:00,
2013-12-21 17:08:00,67.8,64.1,29.72,SE,135,11.0,11.0,88,0.01,,SKC,0.10,VWS V14.01,2013-12-21 23:08:00,
2013-12-21 17:10:00,67.8,64.1,29.72,SE,135,11.0,11.0,88,0.01,,SKC,0.10,VWS V14.01,2013-12-21 23:10:00,
2013-12-21 17:13:00,67.9,64.2,29.71,ESE,106,5.0,17.0,88,0.00,,SKC,0.10,VWS V14.01,2013-12-21 23:13:00,
2013-12-21 17:15:00,67.9,64.2,29.71,ESE,106,5.0,17.0,88,0.00,,SKC,0.10,VWS V14.01,2013-12-21 23:15:00,
2013-12-21 17:18:00,67.8,64.1,29.71,SE,135,13.0,17.0,88,0.00,,SKC,0.10,VWS V14.01,2013-12-21 23:18:00,
2013-12-21 17:20:00,67.8,64.1,29.71,SE,135,13.0,17.0,88,0.00,,SKC,0.10,VWS V14.01,2013-12-21 23:20:00,
2013-12-21 17:23:00,67.8,64.1,29.70,SE,145,14.0,18.0,88,0.00,,SKC,0.10,VWS V14.01,2013-12-21 23:23:00,
2013-12-21 17:25:00,67.8,64.1,29.70,SE,145,14.0,18.0,88,0.00,,SKC,0.10,VWS V14.01,2013-12-21 23:25:00,
2013-12-21 17:28:00,67.7,64.0,29.70,SE,136,11.0,14.0,88,0.00,,SKC,0.10,VWS V14.01,2013-12-21 23:28:00,
2013-12-21 17:30:00,67.7,64.0,29.70,SE,136,11.0,14.0,88,0.00,,SKC,0.10,VWS V14.01,2013-12-21 23:30:00,
2013-12-21 17:33:00,67.8,64.1,29.70,SE,141,9.0,19.0,88,0.00,,SKC,0.10,VWS V14.01,2013-12-21 23:33:00,
2013-12-21 17:35:00,67.8,64.1,29.70,SE,141,9.0,19.0,88,0.00,,SKC,0.10,VWS V14.01,2013-12-21 23:35:00,
2013-12-21 17:38:00,67.9,63.9,29.71,SSE,167,8.0,21.0,87,0.00,,SKC,0.10,VWS V14.01,2013-12-21 23:38:00,
2013-12-21 17:40:00,67.9,63.9,29.71,SSE,167,8.0,21.0,87,0.00,,SKC,0.10,VWS V14.01,2013-12-21 23:40:00,
2013-12-21 17:43:00,68.1,64.1,29.70,SSE,152,11.0,22.0,87,0.00,,SKC,0.10,VWS V14.01,2013-12-21 23:43:00,
2013-12-21 17:45:00,68.1,64.1,29.70,SSE,152,11.0,22.0,87,0.00,,SKC,0.10,VWS V14.01,2013-12-21 23:45:00,
2013-12-21 17:48:00,68.3,64.0,29.70,SE,144,7.0,20.0,86,0.00,,SKC,0.10,VWS V14.01,2013-12-21 23:48:00,
2013-12-21 17:50:00,68.3,64.0,29.70,SE,144,7.0,20.0,86,0.00,,SKC,0.10,VWS V14.01,2013-12-21 23:50:00,
2013-12-21 17:53:00,68.4,64.1,29.70,SE,143,12.0,16.0,86,0.00,,SKC,0.10,VWS V14.01,2013-12-21 23:53:00,
2013-12-21 17:55:00,68.4,64.1,29.70,SE,143,12.0,16.0,86,0.00,,SKC,0.10,VWS V14.01,2013-12-21 23:55:00,
2013-12-21 17:58:00,68.5,64.2,29.70,South,186,7.0,17.0,86,0.00,,SKC,0.10,VWS V14.01,2013-12-21 23:58:00,
2013-12-21 18:00:00,68.5,64.2,29.70,SSW,198,7.0,17.0,86,0.00,,SKC,0.10,VWS V14.01,2013-12-22 00:00:00,
2013-12-21 18:03:00,68.6,64.2,29.69,SSE,153,7.0,22.0,86,0.00,,SKC,0.10,VWS V14.01,2013-12-22 00:03:00,
2013-12-21 18:05:00,68.6,64.2,29.69,SSE,153,7.0,22.0,86,0.00,,SKC,0.10,VWS V14.01,2013-12-22 00:05:00,
2013-12-21 18:08:00,68.8,64.1,29.69,SE,132,5.0,18.0,85,0.00,,SKC,0.10,VWS V14.01,2013-12-22 00:08:00,
2013-12-21 18:10:00,68.8,64.1,29.69,SW,219,4.0,18.0,85,0.00,,SKC,0.10,VWS V14.01,2013-12-22 00:10:00,
2013-12-21 18:13:00,69.1,64.4,29.69,SSE,167,5.0,23.0,85,0.00,,SKC,0.10,VWS V14.01,2013-12-22 00:13:00,
2013-12-21 18:15:00,69.1,64.4,29.69,SE,144,4.0,23.0,85,0.00,,SKC,0.10,VWS V14.01,2013-12-22 00:15:00,
2013-12-21 18:18:00,69.3,64.3,29.69,South,183,6.0,16.0,84,0.00,,SKC,0.10,VWS V14.01,2013-12-22 00:18:00,
2013-12-21 18:20:00,69.3,64.3,29.69,SE,128,8.0,16.0,84,0.00,,SKC,0.10,VWS V14.01,2013-12-22 00:20:00,
2013-12-21 18:23:00,69.4,64.4,29.69,ESE,117,8.0,13.0,84,0.00,,SKC,0.10,VWS V14.01,2013-12-22 00:23:00,
2013-12-21 18:25:00,69.4,64.4,29.69,SE,146,6.0,13.0,84,0.00,,SKC,0.10,VWS V14.01,2013-12-22 00:25:00,
2013-12-21 18:28:00,69.6,64.6,29.69,SE,139,8.0,18.0,84,0.00,,SKC,0.10,VWS V14.01,2013-12-22 00:28:00,
2013-12-21 18:30:00,69.6,64.6,29.69,SSE,150,5.0,18.0,84,0.00,,SKC,0.10,VWS V14.01,2013-12-22 00:30:00,
2013-12-21 18:33:00,69.7,64.7,29.68,South,184,9.0,21.0,84,0.00,,SKC,0.10,VWS V14.01,2013-12-22 00:33:00,
2013-12-21 18:35:00,69.6,64.6,29.68,South,184,9.0,21.0,84,0.00,,SKC,0.10,VWS V14.01,2013-12-22 00:35:00,
2013-12-21 18:38:00,69.6,64.6,29.68,South,186,8.0,22.0,84,0.00,,SKC,0.10,VWS V14.01,2013-12-22 00:38:00,
2013-12-21 18:40:00,69.6,64.6,29.68,South,191,8.0,22.0,84,0.00,,SKC,0.10,VWS V14.01,2013-12-22 00:40:00,
2013-12-21 18:43:00,69.5,64.5,29.68,South,190,5.0,16.0,84,0.00,,SKC,0.10,VWS V14.01,2013-12-22 00:43:00,
2013-12-21 18:45:00,69.5,64.5,29.68,South,178,6.0,16.0,84,0.00,,SKC,0.10,VWS V14.01,2013-12-22 00:45:00,
2013-12-21 18:48:00,69.6,64.6,29.68,SSE,150,8.0,22.0,84,0.00,,SKC,0.10,VWS V14.01,2013-12-22 00:48:00,
2013-12-21 18:50:00,69.6,64.6,29.68,SSE,154,7.0,22.0,84,0.00,,SKC,0.10,VWS V14.01,2013-12-22 00:50:00,
2013-12-21 18:53:00,69.4,64.4,29.67,ESE,109,9.0,12.0,84,0.00,,SKC,0.10,VWS V14.01,2013-12-22 00:53:00,
2013-12-21 18:55:00,69.4,64.4,29.67,South,189,4.0,12.0,84,0.00,,SKC,0.10,VWS V14.01,2013-12-22 00:55:00,
2013-12-21 18:58:00,69.5,64.5,29.67,SE,146,9.0,27.0,84,0.00,,SKC,0.10,VWS V14.01,2013-12-22 00:58:00,
2013-12-21 19:00:00,69.5,64.5,29.67,SE,146,9.0,27.0,84,0.00,,SKC,0.10,VWS V14.01,2013-12-22 01:00:00,
2013-12-21 19:03:00,69.6,64.6,29.67,SE,134,9.0,20.0,84,0.00,,SKC,0.10,VWS V14.01,2013-12-22 01:03:00,
2013-12-21 19:05:00,69.6,64.6,29.67,SSE,155,5.0,20.0,84,0.00,,SKC,0.10,VWS V14.01,2013-12-22 01:05:00,
2013-12-21 19:08:00,69.8,64.4,29.68,South,188,8.0,17.0,83,0.00,,SKC,0.10,VWS V14.01,2013-12-22 01:08:00,
2013-12-21 19:10:00,69.8,64.4,29.68,SSW,204,9.0,17.0,83,0.00,,SKC,0.10,VWS V14.01,2013-12-22 01:10:00,
2013-12-21 19:13:00,70.0,64.6,29.68,SSE,166,15.0,21.0,83,0.00,,SKC,0.10,VWS V14.01,2013-12-22 01:13:00,
2013-12-21 19:15:00,70.0,64.6,29.68,South,170,9.0,21.0,83,0.00,,SKC,0.10,VWS V14.01,2013-12-22 01:15:00,
2013-12-21 19:18:00,70.1,64.7,29.68,SSW,206,14.0,25.0,83,0.00,,SKC,0.10,VWS V14.01,2013-12-22 01:18:00,
2013-12-21 19:20:00,70.1,64.7,29.68,SSW,198,11.0,25.0,83,0.00,,SKC,0.10,VWS V14.01,2013-12-22 01:20:00,
2013-12-21 19:23:00,69.5,64.8,29.68,SW,219,13.0,21.0,85,0.00,,SKC,0.10,VWS V14.01,2013-12-22 01:23:00,
2013-12-21 19:25:00,69.5,64.8,29.68,ESE,105,18.0,21.0,85,0.00,,SKC,0.10,VWS V14.01,2013-12-22 01:25:00,
2013-12-21 19:28:00,69.0,65.0,29.68,SSE,147,7.0,20.0,87,0.00,,SKC,0.10,VWS V14.01,2013-12-22 01:28:00,
2013-12-21 19:30:00,69.0,65.0,29.68,SSE,147,9.0,20.0,87,0.00,,SKC,0.10,VWS V14.01,2013-12-22 01:30:00,
2013-12-21 19:33:00,68.4,64.7,29.68,SSE,160,6.0,16.0,88,0.00,,SKC,0.10,VWS V14.01,2013-12-22 01:33:00,
2013-12-21 19:35:00,68.4,64.7,29.68,South,178,7.0,16.0,88,0.00,,SKC,0.10,VWS V14.01,2013-12-22 01:35:00,
2013-12-21 19:38:00,68.0,64.6,29.68,SSE,163,10.0,18.0,89,0.00,,SKC,0.10,VWS V14.01,2013-12-22 01:38:00,
2013-12-21 19:40:00,68.0,64.6,29.68,SE,143,13.0,18.0,89,0.00,,SKC,0.10,VWS V14.01,2013-12-22 01:40:00,
2013-12-21 19:43:00,67.9,64.5,29.68,South,188,5.0,13.0,89,0.00,,SKC,0.10,VWS V14.01,2013-12-22 01:43:00,
2013-12-21 19:45:00,67.9,64.5,29.68,South,178,5.0,13.0,89,0.00,,SKC,0.10,VWS V14.01,2013-12-22 01:45:00,
2013-12-21 19:48:00,68.0,64.6,29.68,SE,132,9.0,20.0,89,0.00,,SKC,0.10,VWS V14.01,2013-12-22 01:48:00,
2013-12-21 19:50:00,68.0,64.6,29.68,SSE,150,5.0,20.0,89,0.00,,SKC,0.10,VWS V14.01,2013-12-22 01:50:00,
2013-12-21 19:53:00,68.0,64.6,29.68,SSW,206,5.0,15.0,89,0.00,,SKC,0.10,VWS V14.01,2013-12-22 01:53:00,
2013-12-21 19:55:00,68.0,64.6,29.68,SW,228,6.0,15.0,89,0.00,,SKC,0.10,VWS V14.01,2013-12-22 01:55:00,
2013-12-21 19:58:00,68.1,64.4,29.67,South,190,4.0,12.0,88,0.00,,SKC,0.10,VWS V14.01,2013-12-22 01:58:00,
2013-12-21 20:00:00,68.1,64.4,29.67,SSE,150,8.0,12.0,88,0.00,,SKC,0.10,VWS V14.01,2013-12-22 02:00:00,
2013-12-21 20:03:00,68.3,64.6,29.67,SSE,150,6.0,17.0,88,0.00,,SKC,0.10,VWS V14.01,2013-12-22 02:03:00,
2013-12-21 20:05:00,68.3,64.6,29.67,SE,144,10.0,17.0,88,0.00,,SKC,0.10,VWS V14.01,2013-12-22 02:05:00,
2013-12-21 20:08:00,68.5,64.5,29.68,SSW,200,4.0,16.0,87,0.00,,SKC,0.10,VWS V14.01,2013-12-22 02:08:00,
2013-12-21 20:10:00,68.5,64.5,29.68,SSE,153,6.0,16.0,87,0.00,,SKC,0.10,VWS V14.01,2013-12-22 02:10:00,
2013-12-21 20:13:00,68.7,64.7,29.68,South,181,7.0,16.0,87,0.00,,SKC,0.10,VWS V14.01,2013-12-22 02:13:00,
2013-12-21 20:15:00,68.7,64.7,29.68,WSW,240,11.0,16.0,87,0.00,,SKC,0.10,VWS V14.01,2013-12-22 02:15:00,
2013-12-21 20:18:00,69.0,64.6,29.68,SSE,156,9.0,21.0,86,0.00,,SKC,0.10,VWS V14.01,2013-12-22 02:18:00,
2013-12-21 20:20:00,69.0,64.6,29.68,SE,127,11.0,21.0,86,0.00,,SKC,0.10,VWS V14.01,2013-12-22 02:20:00,
2013-12-21 20:23:00,69.1,64.7,29.68,South,179,6.0,15.0,86,0.00,,SKC,0.10,VWS V14.01,2013-12-22 02:23:00,
2013-12-21 20:25:00,69.1,64.7,29.68,SW,217,3.0,15.0,86,0.00,,SKC,0.10,VWS V14.01,2013-12-22 02:25:00,
2013-12-21 20:28:00,69.1,64.7,29.68,South,179,9.0,19.0,86,0.00,,SKC,0.10,VWS V14.01,2013-12-22 02:28:00,
2013-12-21 20:30:00,69.1,64.7,29.68,SSE,162,6.0,19.0,86,0.00,,SKC,0.10,VWS V14.01,2013-12-22 02:30:00,
2013-12-21 20:33:00,69.2,64.8,29.68,South,182,6.0,16.0,86,0.00,,SKC,0.10,VWS V14.01,2013-12-22 02:33:00,
2013-12-21 20:35:00,69.2,64.8,29.68,SSW,201,8.0,16.0,86,0.00,,SKC,0.10,VWS V14.01,2013-12-22 02:35:00,
2013-12-21 20:38:00,69.4,64.7,29.67,South,187,6.0,22.0,85,0.00,,SKC,0.10,VWS V14.01,2013-12-22 02:38:00,
2013-12-21 20:40:00,69.4,64.7,29.67,SSW,204,11.0,22.0,85,0.00,,SKC,0.10,VWS V14.01,2013-12-22 02:40:00,
2013-12-21 20:43:00,69.5,64.8,29.67,SW,226,8.0,15.0,85,0.00,,SKC,0.10,VWS V14.01,2013-12-22 02:43:00,
2013-12-21 20:45:00,69.4,64.7,29.67,South,189,4.0,15.0,85,0.00,,SKC,0.10,VWS V14.01,2013-12-22 02:45:00,
2013-12-21 20:48:00,69.4,64.7,29.67,SSE,148,7.0,16.0,85,0.00,,SKC,0.10,VWS V14.01,2013-12-22 02:48:00,
2013-12-21 20:50:00,69.4,64.7,29.67,SSE,159,11.0,16.0,85,0.00,,SKC,0.10,VWS V14.01,2013-12-22 02:50:00,
2013-12-21 20:53:00,69.7,65.0,29.66,SSW,206,6.0,17.0,85,0.00,,SKC,0.10,VWS V14.01,2013-12-22 02:53:00,
2013-12-21 20:55:00,69.7,65.0,29.66,SE,143,8.0,17.0,85,0.00,,SKC,0.10,VWS V14.01,2013-12-22 02:55:00,
2013-12-21 20:58:00,69.9,64.8,29.66,South,186,12.0,18.0,84,0.00,,SKC,0.10,VWS V14.01,2013-12-22 02:58:00,
2013-12-21 21:00:00,70.0,64.9,29.66,South,176,13.0,18.0,84,0.00,,SKC,0.10,VWS V14.01,2013-12-22 03:00:00,
2013-12-21 21:03:00,70.2,65.1,29.65,South,169,11.0,16.0,84,0.00,,SKC,0.10,VWS V14.01,2013-12-22 03:03:00,
2013-12-21 21:05:00,70.2,65.1,29.65,SE,127,14.0,16.0,84,0.00,,SKC,0.10,VWS V14.01,2013-12-22 03:05:00,
2013-12-21 21:08:00,70.6,65.2,29.65,SE,135,10.0,24.0,83,0.00,,SKC,0.10,VWS V14.01,2013-12-22 03:08:00,
2013-12-21 21:10:00,70.6,65.2,29.65,SSE,152,6.0,24.0,83,0.00,,SKC,0.10,VWS V14.01,2013-12-22 03:10:00,
2013-12-21 21:13:00,71.0,65.2,29.65,South,173,10.0,22.0,82,0.00,,SKC,0.10,VWS V14.01,2013-12-22 03:13:00,
2013-12-21 21:15:00,71.0,65.2,29.65,SE,131,13.0,22.0,82,0.00,,SKC,0.10,VWS V14.01,2013-12-22 03:15:00,
2013-12-21 21:18:00,71.4,65.3,29.65,South,180,15.0,27.0,81,0.00,,SKC,0.10,VWS V14.01,2013-12-22 03:18:00,
2013-12-21 21:20:00,71.4,65.3,29.65,SSW,197,15.0,27.0,81,0.00,,SKC,0.10,VWS V14.01,2013-12-22 03:20:00,
2013-12-21 21:23:00,71.7,65.2,29.66,SE,143,14.0,24.0,80,0.00,,SKC,0.10,VWS V14.01,2013-12-22 03:23:00,
2013-12-21 21:25:00,71.7,65.2,29.66,SSE,156,12.0,24.0,80,0.00,,SKC,0.10,VWS V14.01,2013-12-22 03:25:00,
2013-12-21 21:28:00,71.8,64.9,29.65,SSW,200,10.0,25.0,79,0.00,,SKC,0.10,VWS V14.01,2013-12-22 03:28:00,
2013-12-21 21:30:00,71.8,64.9,29.65,ESE,120,4.0,25.0,79,0.00,,SKC,0.10,VWS V14.01,2013-12-22 03:30:00,
2013-12-21 21:33:00,71.9,65.0,29.65,South,173,22.0,25.0,79,0.00,,SKC,0.10,VWS V14.01,2013-12-22 03:33:00,
2013-12-21 21:35:00,71.9,65.0,29.65,SW,219,15.0,25.0,79,0.00,,SKC,0.10,VWS V14.01,2013-12-22 03:35:00,
2013-12-21 21:38:00,72.1,64.9,29.65,SSE,156,11.0,26.0,78,0.00,,SKC,0.10,VWS V14.01,2013-12-22 03:38:00,
2013-12-21 21:40:00,72.1,64.9,29.65,SSE,166,15.0,26.0,78,0.00,,SKC,0.10,VWS V14.01,2013-12-22 03:40:00,
2013-12-21 21:43:00,72.2,65.0,29.65,SSW,193,11.0,27.0,78,0.00,,SKC,0.10,VWS V14.01,2013-12-22 03:43:00,
2013-12-21 21:45:00,72.3,65.1,29.65,South,188,9.0,27.0,78,0.00,,SKC,0.10,VWS V14.01,2013-12-22 03:45:00,
2013-12-21 21:48:00,72.4,64.8,29.66,South,172,17.0,24.0,77,0.00,,SKC,0.10,VWS V14.01,2013-12-22 03:48:00,
2013-12-21 21:50:00,72.4,64.8,29.66,SSE,166,11.0,24.0,77,0.00,,SKC,0.10,VWS V14.01,2013-12-22 03:50:00,
2013-12-21 21:53:00,72.5,64.9,29.65,SSE,165,17.0,38.0,77,0.00,,SKC,0.10,VWS V14.01,2013-12-22 03:53:00,
2013-12-21 21:55:00,72.5,64.9,29.65,SSW,203,11.0,38.0,77,0.00,,SKC,0.10,VWS V14.01,2013-12-22 03:55:00,
2013-12-21 21:58:00,72.6,65.0,29.66,SSW,207,11.0,22.0,77,0.00,,SKC,0.10,VWS V14.01,2013-12-22 03:58:00,
2013-12-21 22:00:00,72.6,65.0,29.66,South,169,7.0,22.0,77,0.00,,SKC,0.10,VWS V14.01,2013-12-22 04:00:00,
2013-12-21 22:03:00,72.6,64.6,29.66,SSW,204,9.0,17.0,76,0.00,,SKC,0.10,VWS V14.01,2013-12-22 04:03:00,
2013-12-21 22:05:00,72.6,65.0,29.66,SW,235,17.0,17.0,77,0.00,,SKC,0.10,VWS V14.01,2013-12-22 04:05:00,
2013-12-21 22:08:00,72.6,64.6,29.67,SSW,197,14.0,23.0,76,0.00,,SKC,0.10,VWS V14.01,2013-12-22 04:08:00,
2013-12-21 22:10:00,72.6,64.6,29.67,South,181,11.0,23.0,76,0.00,,SKC,0.10,VWS V14.01,2013-12-22 04:10:00,
2013-12-21 22:13:00,72.6,64.6,29.67,SSE,152,13.0,25.0,76,0.00,,SKC,0.10,VWS V14.01,2013-12-22 04:13:00,
2013-12-21 22:15:00,72.6,64.6,29.67,SW,218,14.0,25.0,76,0.00,,SKC,0.10,VWS V14.01,2013-12-22 04:15:00,
2013-12-21 22:18:00,72.7,64.7,29.67,SSE,166,7.0,24.0,76,0.00,,SKC,0.10,VWS V14.01,2013-12-22 04:18:00,
2013-12-21 22:20:00,72.7,64.7,29.67,SSE,150,5.0,24.0,76,0.00,,SKC,0.10,VWS V14.01,2013-12-22 04:20:00,
2013-12-21 22:23:00,72.6,64.6,29.67,South,173,16.0,16.0,76,0.00,,SKC,0.10,VWS V14.01,2013-12-22 04:23:00,
2013-12-21 22:25:00,72.6,64.6,29.67,SE,132,15.0,16.0,76,0.00,,SKC,0.10,VWS V14.01,2013-12-22 04:25:00,
2013-12-21 22:28:00,72.6,64.6,29.67,SSE,160,18.0,23.0,76,0.00,,SKC,0.10,VWS V14.01,2013-12-22 04:28:00,
2013-12-21 22:30:00,72.6,64.6,29.67,South,187,9.0,23.0,76,0.00,,SKC,0.10,VWS V14.01,2013-12-22 04:30:00,
2013-12-21 22:33:00,72.7,64.7,29.66,SSW,192,14.0,31.0,76,0.00,,SKC,0.10,VWS V14.01,2013-12-22 04:33:00,
2013-12-21 22:35:00,72.7,64.7,29.66,SE,134,11.0,31.0,76,0.00,,SKC,0.10,VWS V14.01,2013-12-22 04:35:00,
2013-12-21 22:38:00,72.8,64.4,29.67,SE,139,13.0,19.0,75,0.00,,SKC,0.10,VWS V14.01,2013-12-22 04:38:00,
2013-12-21 22:40:00,72.8,64.4,29.67,SE,139,13.0,19.0,75,0.00,,SKC,0.10,VWS V14.01,2013-12-22 04:40:00,
2013-12-21 22:43:00,72.7,64.7,29.67,SSE,159,8.0,25.0,76,0.00,,SKC,0.10,VWS V14.01,2013-12-22 04:43:00,
2013-12-21 22:45:00,72.7,64.7,29.67,SSE,159,8.0,25.0,76,0.00,,SKC,0.10,VWS V14.01,2013-12-22 04:45:00,
2013-12-21 22:48:00,72.7,64.7,29.67,South,175,13.0,17.0,76,0.00,,SKC,0.10,VWS V14.01,2013-12-22 04:48:00,
2013-12-21 22:50:00,72.7,64.7,29.67,South,175,13.0,17.0,76,0.00,,SKC,0.10,VWS V14.01,2013-12-22 04:50:00,
2013-12-21 22:53:00,72.7,64.7,29.67,South,191,11.0,21.0,76,0.00,,SKC,0.10,VWS V14.01,2013-12-22 04:53:00,
2013-12-21 22:55:00,72.7,64.7,29.67,South,191,11.0,21.0,76,0.00,,SKC,0.10,VWS V14.01,2013-12-22 04:55:00,
2013-12-21 22:58:00,72.8,64.4,29.67,SSE,150,10.0,25.0,75,0.00,,SKC,0.10,VWS V14.01,2013-12-22 04:58:00,
2013-12-21 23:00:00,72.8,64.4,29.67,SSE,150,10.0,25.0,75,0.00,,SKC,0.10,VWS V14.01,2013-12-22 05:00:00,
2013-12-21 23:01:00,72.9,64.5,29.67,SSE,167,9.0,24.0,75,0.00,,SKC,0.10,VWS V14.01,2013-12-22 05:01:00,
2013-12-21 23:02:00,72.9,64.5,29.67,SSW,198,4.0,24.0,75,0.00,,SKC,0.10,VWS V14.01,2013-12-22 05:02:00,
2013-12-21 23:05:00,72.8,64.4,29.67,SSW,198,15.0,24.0,75,0.00,,SKC,0.10,VWS V14.01,2013-12-22 05:05:00,
2013-12-21 23:07:00,72.8,64.8,29.66,South,176,13.0,22.0,76,0.00,,SKC,0.10,VWS V14.01,2013-12-22 05:07:00,
2013-12-21 23:10:00,72.9,64.9,29.67,SSW,193,10.0,22.0,76,0.00,,SKC,0.10,VWS V14.01,2013-12-22 05:10:00,
2013-12-21 23:12:00,72.8,64.8,29.67,South,180,12.0,18.0,76,0.00,,SKC,0.10,VWS V14.01,2013-12-22 05:12:00,
2013-12-21 23:15:00,72.8,64.8,29.67,South,176,15.0,18.0,76,0.00,,SKC,0.10,VWS V14.01,2013-12-22 05:15:00,
2013-12-21 23:17:00,72.9,64.9,29.68,SW,226,4.0,27.0,76,0.00,,SKC,0.10,VWS V14.01,2013-12-22 05:17:00,
2013-12-21 23:20:00,72.9,64.9,29.68,WSW,252,7.0,27.0,76,0.00,,SKC,0.10,VWS V14.01,2013-12-22 05:20:00,
2013-12-21 23:22:00,72.9,64.9,29.69,West,271,7.0,15.0,76,0.00,,SKC,0.10,VWS V14.01,2013-12-22 05:22:00,
2013-12-21 23:25:00,72.9,64.9,29.71,WNW,284,5.0,15.0,76,0.00,,SKC,0.10,VWS V14.01,2013-12-22 05:25:00,
2013-12-21 23:27:00,69.0,61.1,29.72,WSW,245,25.0,30.0,76,0.00,,SKC,0.10,VWS V14.01,2013-12-22 05:27:00,
2013-12-21 23:30:00,67.7,61.0,29.74,West,272,9.0,33.0,79,0.01,,SKC,0.11,VWS V14.01,2013-12-22 05:30:00,
2013-12-21 23:32:00,64.6,60.3,29.75,SW,218,7.0,32.0,86,0.20,,SKC,0.30,VWS V14.01,2013-12-22 05:32:00,
2013-12-21 23:35:00,64.0,60.1,29.76,SW,233,12.0,32.0,87,0.26,,SKC,0.36,VWS V14.01,2013-12-22 05:35:00,
2013-12-21 23:37:00,62.3,59.3,29.75,SW,218,5.0,30.0,90,0.39,,SKC,0.49,VWS V14.01,2013-12-22 05:37:00,
2013-12-21 23:40:00,62.0,59.3,29.75,SW,217,15.0,30.0,91,0.40,,SKC,0.50,VWS V14.01,2013-12-22 05:40:00,
2013-12-21 23:42:00,61.2,58.9,29.76,West,274,1.0,16.0,92,0.46,,SKC,0.56,VWS V14.01,2013-12-22 05:42:00,
2013-12-21 23:45:00,61.1,58.8,29.75,WSW,256,4.0,16.0,92,0.50,,SKC,0.60,VWS V14.01,2013-12-22 05:45:00,
2013-12-21 23:47:00,60.5,58.5,29.75,SW,225,14.0,17.0,93,0.58,,SKC,0.68,VWS V14.01,2013-12-22 05:47:00,
2013-12-21 23:50:00,60.4,58.4,29.74,SW,235,4.0,17.0,93,0.59,,SKC,0.69,VWS V14.01,2013-12-22 05:50:00,
2013-12-21 23:52:00,60.2,58.5,29.74,SW,226,4.0,6.0,94,0.67,,SKC,0.77,VWS V14.01,2013-12-22 05:52:00,
2013-12-21 23:55:00,60.1,58.4,29.75,SE,136,12.0,12.0,94,0.68,,SKC,0.78,VWS V14.01,2013-12-22 05:55:00,
2013-12-21 23:57:00,60.0,58.3,29.74,SSE,158,8.0,16.0,94,0.74,,SKC,0.84,VWS V14.01,2013-12-22 05:57:00,